GFSFLT1_sfc_rhum_000.txt.gz
RH
68 63 70 69 67 64 60 62 64 67 69 69 67 64 63 77 92 93 84 78 66 54 62 66 64 64 66 64 64 70 72 69 67
72 70 71 69 66 62 62 63 62 64 67 70 73 71 77 86 93 92 84 78 67 62 59 58 62 64 66 66 65 65 67 69 67
72 71 71 68 66 64 66 67 69 68 66 67 70 77 83 86 93 91 87 78 68 62 60 62 61 61 63 64 65 65 64 64 65
69 76 73 70 69 69 71 72 68 69 71 72 74 82 86 94 97 88 88 79 71 66 63 63 62 63 63 62 63 64 65 65 66
76 84 80 74 75 76 73 71 72 73 74 75 81 85 87 94 96 96 91 80 74 70 67 64 62 62 63 64 66 64 64 66 62
86 87 84 84 77 75 75 75 77 84 87 86 87 88 97 94 94 92 84 77 73 69 66 65 64 62 65 68 66 68 67 66 65
76 87 87 82 82 84 79 79 85 89 97 98 92 90 90 95 92 90 80 76 72 70 69 72 72 71 72 72 68 69 71 72 70
86 90 90 91 88 93 90 90 91 91 92 95 94 87 89 96 90 84 80 77 72 70 70 73 74 74 74 74 72 75 77 76 78
92 93 90 91 95 91 82 80 68 70 74 82 80 77 85 93 94 93 87 80 65 66 60 66 69 72 72 70 74 77 78 77 77
94 95 92 83 74 68 59 65 65 64 64 61 60 64 74 75 78 86 82 76 71 68 63 64 64 66 68 67 72 76 75 75 76
83 48 51 58 65 61 59 59 62 59 62 54 58 58 58 62 63 65 71 75 74 60 52 52 58 64 61 59 65 67 68 70 72
46 46 56 65 63 56 54 52 50 56 52 56 54 50 50 56 53 60 57 63 69 62 51 59 47 50 49 49 51 60 63 63 63
51 54 57 61 56 52 51 53 49 57 58 56 50 49 51 52 52 52 46 54 53 54 57 45 43 43 45 49 47 48 50 58 60
51 51 54 54 52 50 50 45 54 58 54 47 49 42 53 59 36 40 42 53 49 47 55 55 52 46 46 43 46 46 45 46 48
47 45 48 50 48 50 49 46 50 57 59 46 40 44 58 51 28 36 40 43 36 48 40 46 42 50 43 45 45 46 46 50 52
43 46 46 51 48 50 48 52 55 58 62 62 50 61 55 40 24 42 29 42 24 42 29 39 37 42 47 42 42 44 45 47 51
38 45 48 49 50 46 50 55 57 62 64 63 69 65 58 42 28 38 36 30 37 35 30 40 43 38 48 42 43 42 47 52 49
41 42 45 49 51 51 50 53 54 59 62 56 58 64 67 45 49 36 41 29 49 32 47 36 38 37 30 45 39 47 47 49 50
39 41 42 44 48 44 46 41 52 53 55 60 49 58 62 61 54 51 34 46 31 44 46 45 46 30 37 37 44 43 45 47 51
37 38 39 41 46 43 42 44 43 52 52 60 64 58 59 59 62 50 49 35 34 38 43 53 38 36 35 44 46 43 46 55 55

GFSFLT1_sfc_rhum_003.txt.gz
RH
65 63 71 70 67 63 62 64 66 66 70 71 71 69 68 75 92 95 93 88 73 65 58 60 64 64 64 65 66 65 72 72 68
70 71 70 69 67 62 62 64 66 66 66 67 68 71 79 87 92 94 94 88 72 64 62 61 59 59 64 62 62 63 62 65 64
70 72 72 70 67 66 67 69 70 70 69 68 68 76 83 90 94 95 95 85 74 67 64 62 62 62 62 60 62 61 61 61 61
71 76 73 71 72 71 73 75 71 69 71 73 76 82 86 94 97 92 96 86 77 73 70 67 65 64 63 65 64 64 63 62 61
74 85 81 76 76 77 76 73 74 76 77 77 83 87 89 95 95 97 96 83 76 73 71 70 68 67 65 66 65 67 68 65 62
89 90 86 84 80 77 76 77 79 85 88 88 89 90 98 96 97 98 87 81 76 73 72 72 70 69 70 72 71 66 68 69 71
80 90 90 85 85 86 82 82 84 88 97 98 92 98 95 97 96 96 85 80 73 66 69 73 72 71 71 71 70 70 71 71 74
94 95 95 95 90 90 93 94 89 80 84 82 83 78 86 95 96 91 83 70 62 58 63 67 70 71 73 70 70 74 74 75 78
95 97 92 89 96 89 70 64 62 58 60 62 61 61 68 74 82 84 75 69 64 62 60 59 61 69 71 68 71 76 78 76 77
97 81 66 63 60 62 59 58 53 56 55 51 54 53 60 58 64 75 73 71 59 53 52 57 60 57 58 60 64 69 69 69 72
58 56 55 54 62 59 54 52 53 54 54 45 49 51 46 54 58 65 62 62 54 55 56 49 48 47 49 53 55 56 56 54 54
46 50 56 61 54 50 45 44 50 51 44 47 48 51 46 56 49 50 49 61 58 57 46 46 45 46 49 47 48 51 52 51 50
47 56 60 54 48 49 45 50 49 55 53 52 51 52 45 53 34 40 44 58 45 52 43 47 44 49 47 46 46 46 47 47 49
48 55 56 49 50 51 48 45 53 58 49 44 50 50 50 51 26 38 38 48 39 51 42 50 48 49 45 45 45 46 47 50 54
47 50 50 47 49 52 49 47 50 60 60 48 44 51 59 47 34 44 31 40 32 52 38 54 49 49 45 44 45 45 43 44 48
45 51 50 50 49 52 47 53 55 56 62 67 59 61 57 46 33 44 39 36 36 43 37 41 45 52 45 43 43 42 42 47 48
41 48 50 47 47 45 47 54 54 56 62 64 72 64 58 51 25 40 42 36 45 34 34 42 44 52 45 45 43 42 48 50 50
43 44 46 47 49 50 48 51 49 52 52 60 52 52 64 53 49 31 42 28 48 34 48 45 43 49 41 47 48 47 46 50 51
41 41 42 44 48 44 44 41 49 53 52 58 45 55 59 64 60 52 31 47 32 43 53 44 54 45 45 45 46 44 46 49 54
39 39 39 40 46 43 42 43 41 50 51 57 60 57 58 61 68 46 46 38 34 31 36 56 37 46 40 51 53 44 46 50 54

GFSFLT1_sfc_rhum_006.txt.gz
RH
64 64 68 71 67 62 61 64 65 64 67 69 69 72 71 78 89 93 91 90 76 64 63 62 56 63 59 62 64 66 66 71 73
69 69 70 68 67 63 62 64 66 68 69 68 67 70 81 89 92 93 94 93 78 68 62 62 58 58 57 60 60 60 57 64 64
73 73 73 70 66 67 67 70 72 70 69 70 71 76 83 90 94 95 96 90 80 74 70 66 64 62 64 62 61 59 62 59 60
72 76 74 71 72 72 74 74 72 72 74 75 78 85 88 95 97 93 98 88 80 75 71 71 69 67 66 66 68 67 66 64 62
76 86 81 75 74 76 76 76 76 77 79 81 85 90 91 95 96 97 97 83 78 75 73 73 73 71 70 68 69 68 69 71 68
90 88 86 81 80 77 77 80 82 85 88 87 86 86 97 95 97 98 87 81 76 69 68 71 72 72 72 73 71 69 68 68 71
82 90 89 84 83 81 82 82 76 74 88 85 74 83 86 88 91 96 78 70 63 60 59 64 67 65 68 71 71 74 74 72 75
96 97 96 95 92 87 87 66 64 62 62 62 62 63 71 80 76 75 68 64 60 57 58 59 60 67 68 69 68 73 72 75 78
96 98 92 94 87 63 64 60 52 51 48 51 52 55 56 57 66 74 70 60 54 54 54 59 61 58 59 61 64 65 66 67 73
97 63 55 55 59 57 52 49 51 47 45 42 47 50 44 58 63 71 67 56 58 57 52 52 51 50 54 57 56 58 57 56 56
55 55 55 51 56 49 45 49 52 46 46 38 46 52 44 57 48 55 61 50 57 50 49 49 48 51 52 50 51 52 53 52 52
49 52 51 53 49 44 43 44 51 46 41 41 47 50 47 41 41 41 54 55 52 48 48 48 49 51 50 50 50 49 50 48 50
47 54 53 48 49 47 44 50 48 52 50 47 49 52 49 40 33 38 50 46 44 48 47 47 48 49 47 48 49 47 48 51 55
48 53 50 48 50 49 46 47 53 58 47 38 48 52 53 42 30 40 42 36 44 49 42 45 47 46 47 46 47 48 46 45 44
51 50 47 46 50 48 46 47 50 64 60 46 45 57 63 46 38 46 37 37 42 47 39 51 50 48 47 46 46 46 44 44 44
48 51 48 48 48 48 46 51 52 51 61 62 55 61 58 58 48 40 44 38 40 42 39 37 47 54 50 46 43 44 44 46 49
44 48 48 45 46 45 47 51 50 51 60 57 70 59 51 47 28 42 42 36 45 37 31 37 37 51 58 51 44 43 45 48 51
44 44 45 46 49 50 50 49 48 52 50 62 49 44 54 65 54 42 44 30 48 38 46 38 36 49 54 50 50 49 46 48 52
42 42 43 45 48 44 44 41 50 52 53 56 44 53 58 56 61 50 31 45 32 45 47 37 48 51 48 50 48 49 46 47 50
40 39 40 42 48 43 41 43 43 51 52 56 58 59 60 66 64 48 48 38 36 35 40 50 35 37 48 54 56 50 45 49 52

GFSFLT1_sfc_rhum_009.txt.gz
RH
62 62 68 70 66 62 62 64 65 66 67 66 67 70 72 77 63 66 66 66 72 68 59 63 62 56 57 59 61 64 66 65 67
69 68 70 69 66 63 64 67 68 70 70 68 68 69 80 64 65 67 68 69 79 74 69 64 63 60 58 58 56 58 58 60 61
72 72 71 70 66 69 68 71 71 70 70 71 74 77 86 69 67 68 68 76 80 75 73 72 67 66 64 64 62 61 60 59 62
77 75 72 71 72 72 74 75 74 75 76 78 82 86 90 67 66 67 64 79 80 74 73 72 73 71 69 67 66 70 69 66 65
78 86 81 75 75 76 76 78 81 83 85 84 83 83 79 56 59 58 61 82 78 71 70 71 72 74 73 73 72 70 69 69 69
70 82 84 81 79 78 79 80 76 75 69 64 66 66 47 43 46 51 75 75 71 66 64 62 65 68 68 72 75 74 73 72 74
64 81 88 82 81 83 74 62 56 49 37 36 45 35 38 37 37 40 68 62 58 58 58 60 62 64 66 69 69 68 70 72 76
68 66 67 69 83 59 45 39 35 34 31 31 29 32 28 28 38 49 67 58 53 52 52 59 66 60 62 66 70 70 70 71 74
71 71 70 62 52 42 37 33 30 27 25 26 27 27 30 35 39 46 63 58 56 59 56 55 54 54 61 60 60 61 60 59 60
68 52 50 45 37 32 31 30 25 22 22 22 28 26 33 28 33 37 63 61 55 54 54 52 52 57 55 53 55 55 56 56 56
56 48 45 38 31 28 28 28 27 23 22 20 27 27 29 27 26 33 34 56 52 52 52 52 55 52 52 53 52 51 53 52 51
47 40 36 34 31 26 26 26 29 24 21 20 26 27 27 24 27 29 29 33 48 48 47 47 48 49 50 50 51 50 50 52 57
42 41 35 32 30 28 28 27 28 27 25 24 26 28 34 23 24 28 25 31 29 35 45 44 44 47 48 50 50 48 50 49 50
36 35 36 30 29 29 26 28 31 29 28 26 25 31 36 24 24 24 27 29 29 28 35 42 41 41 44 48 49 48 48 48 48
35 34 32 29 30 27 27 27 30 33 34 26 25 40 43 31 28 22 25 25 29 28 30 27 26 40 45 48 49 47 48 47 48
37 34 31 31 30 30 26 30 30 32 36 27 27 31 34 36 34 22 26 26 27 28 23 23 22 24 43 49 49 46 47 48 49
34 34 33 32 31 30 31 34 30 32 38 30 37 31 24 26 19 29 27 24 24 25 21 23 22 25 27 38 45 47 48 49 49
33 33 31 34 34 35 35 35 34 32 35 34 28 26 28 32 28 27 29 22 26 22 26 24 23 25 28 35 37 45 48 51 50
32 33 32 32 32 32 31 30 35 36 35 34 28 30 32 29 29 28 23 28 23 26 26 24 25 26 27 35 45 51 50 50 51
32 31 33 32 32 32 32 34 33 35 34 36 36 36 34 40 40 30 28 28 26 27 27 28 27 27 30 33 40 47 51 53 55

GFSFLT1_sfc_rhum_012.txt.gz
RH
56 54 64 67 65 63 64 64 67 68 69 68 66 68 74 77 47 49 51 56 66 72 68 61 62 63 56 56 60 62 64 66 66
68 65 68 69 66 64 65 68 70 70 69 69 70 72 79 54 51 52 54 55 73 74 71 70 66 64 63 59 59 58 58 59 59
69 70 70 69 67 70 70 73 73 72 73 75 78 82 85 58 52 54 54 69 78 74 74 74 74 70 68 67 65 64 61 61 61
78 76 72 70 74 73 75 76 77 79 81 84 85 84 83 52 49 50 47 80 78 73 70 73 72 73 73 71 70 68 68 69 67
84 83 80 75 75 76 78 82 80 80 76 71 66 66 66 37 39 38 47 78 76 70 69 67 65 68 71 71 75 74 73 71 74
54 81 82 79 80 79 80 70 64 58 61 58 54 59 31 31 31 30 66 64 62 61 60 59 60 63 66 68 68 69 72 75 75
49 72 85 82 81 75 63 54 43 48 30 29 37 25 23 22 24 27 67 60 55 55 55 57 65 63 63 70 72 72 71 71 74
50 49 52 55 73 45 40 35 29 29 24 23 20 21 19 18 23 44 62 58 52 52 62 59 57 59 63 61 64 64 64 63 66
51 50 57 51 42 39 33 29 24 21 18 17 18 18 19 21 24 43 69 63 60 58 57 55 59 59 58 57 58 58 59 60 60
54 44 40 37 32 29 27 22 18 16 16 15 17 18 19 19 23 31 66 59 58 56 56 59 57 56 56 57 56 55 57 57 56
47 44 41 31 26 21 19 18 19 16 15 15 16 17 19 20 24 24 38 55 52 51 50 50 51 52 53 52 53 54 54 55 57
42 39 33 25 21 19 19 18 19 18 15 16 16 17 18 20 23 22 23 28 49 48 47 46 45 46 48 49 50 51 51 52 52
39 33 26 22 22 21 20 19 20 20 18 18 17 18 21 19 19 20 19 23 20 27 44 45 44 44 43 45 48 49 48 50 51
32 27 25 22 22 21 18 20 21 22 21 18 16 22 24 20 17 19 22 24 24 22 28 34 31 37 46 47 49 50 49 49 50
26 24 23 22 23 20 20 20 22 23 22 17 18 28 28 24 24 21 17 19 22 22 23 21 21 30 36 44 47 49 48 50 50
27 25 23 22 22 21 20 22 23 24 22 20 20 22 24 30 28 16 17 20 20 19 18 19 19 18 32 35 44 50 51 51 51
27 26 25 24 24 24 24 27 24 24 24 24 26 24 20 19 20 19 18 17 17 18 18 20 19 21 22 30 42 44 50 55 55
26 26 24 26 26 28 27 27 25 25 25 24 23 23 23 22 18 20 18 18 18 19 22 21 20 22 22 28 31 42 52 54 57
24 24 24 25 25 26 24 22 25 26 27 26 20 22 23 23 24 20 19 19 18 22 22 22 22 22 23 31 37 43 51 56 58
24 24 25 24 24 25 25 27 25 26 26 28 27 25 25 25 30 29 24 22 21 22 22 23 22 22 24 27 34 47 54 59 62

GFSFLT1_sfc_rhum_015.txt.gz
RH
58 57 64 68 65 65 66 68 68 69 70 68 67 69 74 77 45 47 51 52 70 71 68 67 64 61 63 59 58 60 61 63 66
67 64 69 68 66 66 67 70 71 71 70 71 73 76 80 63 50 48 51 63 72 73 68 70 70 66 66 65 63 61 60 59 59
69 70 70 69 71 70 72 74 73 74 77 80 82 83 85 57 51 50 51 76 72 72 68 71 72 71 72 71 69 67 67 63 63
74 74 73 72 73 74 76 80 81 81 81 78 74 73 75 54 43 42 44 75 72 69 64 70 68 67 70 71 73 74 71 69 69
82 83 80 76 76 78 82 78 78 73 65 60 58 63 70 38 37 35 54 64 65 66 64 62 60 61 66 69 69 69 70 75 74
61 83 84 80 80 81 72 62 54 56 60 50 49 58 30 28 28 30 63 60 56 56 58 58 60 66 66 70 73 73 72 71 72
48 72 86 80 82 72 60 48 44 52 32 31 44 22 22 22 25 41 64 59 52 51 63 64 60 65 65 65 67 67 67 66 67
51 56 59 67 81 50 50 41 33 30 25 25 19 21 21 20 24 55 69 59 54 62 61 60 66 63 61 61 62 61 63 62 63
47 46 56 57 47 44 39 34 28 22 18 16 17 18 18 20 23 57 68 62 62 61 60 62 60 60 61 61 61 59 60 62 63
46 48 45 41 36 33 31 26 20 17 17 16 15 17 17 18 23 44 68 61 57 56 56 55 55 55 55 55 55 57 58 58 58
50 46 41 36 31 25 20 20 20 19 17 16 15 17 18 19 23 28 45 55 52 51 49 47 46 46 46 48 50 51 53 53 54
47 41 37 31 24 20 21 20 20 20 17 17 17 17 18 20 23 25 30 43 50 46 46 45 44 45 45 44 46 48 50 49 51
43 38 32 25 24 24 23 21 23 23 22 20 19 20 21 19 20 24 22 29 24 40 36 37 37 40 45 48 48 49 50 50 51
36 35 29 24 25 24 20 23 24 26 26 22 20 27 26 22 18 20 23 26 28 29 34 34 32 31 36 44 48 50 51 51 52
35 29 26 25 26 24 24 24 25 26 26 18 20 30 29 26 24 22 20 20 24 26 29 29 28 32 30 37 40 49 52 51 53
35 28 26 25 26 25 23 25 27 29 26 28 28 28 24 30 28 26 20 22 21 22 23 25 26 24 32 32 38 47 49 55 55
35 30 29 27 29 28 28 32 29 30 28 28 35 33 27 24 22 23 21 20 23 23 22 24 24 29 30 36 38 40 49 56 58
34 30 28 31 33 35 34 32 31 34 31 26 30 32 33 28 26 27 23 23 24 22 27 25 25 26 29 33 34 37 46 56 59
30 28 29 29 30 32 30 25 29 33 33 30 20 24 26 29 30 27 25 23 20 24 26 26 26 26 29 32 36 39 46 56 60
31 26 30 29 29 29 30 30 28 28 29 32 32 28 30 28 33 38 32 27 25 26 26 26 26 27 29 34 36 39 47 56 62

GFSFLT1_sfc_rhum_018.txt.gz
RH
60 63 70 68 67 67 70 70 71 72 71 69 69 72 73 80 72 63 66 79 69 70 65 63 67 63 61 63 61 59 60 61 62
59 69 72 70 69 69 71 73 74 73 74 75 76 78 82 81 69 61 79 75 70 70 64 70 72 72 69 68 66 66 63 61 60
69 72 72 72 72 72 75 75 76 80 80 80 80 80 84 71 66 56 86 74 68 67 61 70 70 69 70 73 72 73 69 67 67
74 74 74 76 73 76 82 80 79 78 76 70 63 67 72 75 56 52 75 68 62 65 63 64 62 61 66 70 69 69 70 74 72
82 84 82 76 78 81 79 77 73 67 60 52 52 61 67 69 47 68 70 56 54 55 59 60 59 66 71 71 74 74 74 74 73
84 86 85 83 81 78 69 59 54 61 67 60 53 58 40 33 42 71 63 54 52 51 59 64 65 67 67 69 69 69 69 67 69
69 86 89 84 82 75 61 50 56 59 48 50 48 36 29 34 49 76 62 53 47 67 63 69 66 64 64 65 64 66 65 64 65
79 91 91 95 85 74 63 58 44 38 32 32 27 30 31 36 73 73 70 64 64 60 68 65 63 64 64 64 63 62 64 67 68
72 77 76 80 80 58 52 48 35 28 24 24 24 26 29 34 71 78 72 64 62 64 62 60 59 58 59 58 59 60 61 61 60
70 72 67 61 52 49 43 33 30 29 26 24 22 26 27 29 63 80 70 61 58 56 54 52 50 49 49 49 50 52 54 54 55
67 63 61 51 44 35 32 30 33 32 28 26 23 26 29 29 45 63 71 56 51 48 47 46 46 46 46 45 47 48 50 52 52
64 59 56 45 34 32 34 31 34 34 30 32 29 26 28 30 32 48 54 57 53 44 41 41 41 42 45 48 49 50 50 52 52
57 54 50 39 38 38 36 36 39 40 39 36 30 32 30 28 31 30 36 41 44 44 35 34 34 35 40 45 48 50 53 53 53
56 53 43 38 40 38 33 39 40 41 40 31 29 42 39 31 24 30 31 35 35 36 34 36 36 33 34 40 44 48 52 53 52
46 40 39 40 41 39 38 39 40 41 40 26 29 41 43 37 36 34 28 31 30 33 31 38 38 35 36 38 39 46 49 52 57
45 39 40 42 41 37 34 39 40 44 43 45 42 44 38 44 43 43 30 29 28 27 31 36 38 38 35 35 38 44 46 54 57
36 36 43 41 44 42 41 43 46 45 42 42 49 47 42 37 31 37 30 29 30 30 27 31 31 37 42 44 37 40 44 51 58
35 36 42 47 52 52 46 44 42 49 44 35 43 45 49 43 39 35 33 30 36 32 35 32 31 34 38 42 41 37 42 48 57
34 36 39 47 51 46 42 38 42 47 46 46 30 35 38 46 48 43 39 37 32 37 39 37 34 33 39 38 39 38 41 49 55
34 35 38 45 48 39 41 42 40 42 46 47 47 43 45 42 49 55 49 43 40 39 40 39 39 34 36 42 40 37 44 50 56

GFSFLT1_sfc_rhum_021.txt.gz
RH
64 70 69 69 70 70 71 72 72 72 72 71 72 72 73 82 81 69 71 79 69 68 62 67 68 68 62 61 62 62 60 61 61
66 72 71 70 71 71 74 74 74 76 76 76 77 78 83 82 78 76 85 82 69 66 57 67 72 72 72 72 71 68 66 64 62
71 73 73 74 71 75 76 76 79 80 79 78 75 74 79 70 70 80 85 74 63 62 53 68 66 64 67 70 70 70 74 73 68
74 74 75 74 74 79 81 80 78 76 72 62 56 65 69 76 69 61 75 65 53 58 61 61 59 68 72 74 75 75 75 74 76
81 84 83 76 79 81 79 77 72 66 57 50 54 62 59 53 71 74 72 56 49 51 55 58 67 70 69 70 70 71 70 70 72
90 89 86 84 82 78 72 65 61 64 67 60 62 53 33 48 75 76 65 48 48 66 66 69 68 66 68 66 67 67 67 67 68
85 90 90 86 85 78 65 56 56 55 51 44 43 36 31 55 77 85 68 53 66 67 69 68 66 67 66 66 64 66 69 70 70
91 98 96 97 88 85 68 58 44 37 33 30 27 30 34 76 85 81 74 65 59 67 64 65 64 62 62 62 62 63 64 63 64
94 98 97 97 94 82 69 53 32 29 26 26 25 28 35 76 84 84 74 65 64 62 60 58 55 54 53 53 54 55 56 56 57
84 89 91 82 62 53 39 35 33 32 27 26 25 28 33 73 79 88 73 64 58 54 50 49 48 48 47 47 49 50 51 54 53
79 73 66 53 41 36 34 33 36 35 32 30 27 28 33 58 74 77 76 57 48 45 44 44 43 44 47 49 50 51 52 54 53
67 63 54 43 37 35 32 37 37 38 34 34 30 31 32 38 62 64 65 61 58 43 38 39 39 40 43 46 48 50 54 55 55
62 59 47 42 42 38 37 40 42 42 40 37 33 36 34 34 40 51 56 55 52 42 35 34 36 37 38 43 46 49 53 53 54
56 54 47 41 41 40 36 43 42 42 41 34 34 46 42 34 30 35 38 41 41 39 38 41 37 37 39 43 43 45 51 52 57
54 47 43 42 42 42 43 42 46 43 43 29 37 47 48 41 38 35 33 33 33 35 34 40 38 35 34 38 40 44 45 49 55
43 44 42 44 43 41 37 43 41 45 46 42 44 50 44 45 42 45 37 31 32 32 35 38 39 40 36 35 37 42 45 47 52
41 40 43 42 44 44 43 46 49 48 46 42 56 45 42 38 36 40 32 31 34 32 29 33 33 39 42 44 34 35 40 47 50
42 42 40 39 51 52 45 46 46 50 47 40 44 41 46 47 42 40 38 37 37 38 42 35 34 35 38 41 40 36 38 44 49
41 41 42 42 52 48 46 42 47 52 47 49 36 40 41 41 38 44 44 44 37 42 44 44 39 37 42 42 43 36 38 44 50
41 42 45 41 44 44 43 43 43 46 50 51 49 46 50 47 49 52 51 48 43 44 47 45 44 42 42 46 46 37 40 45 49

GFSFLT1_sfc_rhum_024.txt.gz
RH
68 65 67 69 71 70 71 72 72 72 72 72 71 72 77 80 83 75 72 85 70 64 59 69 70 70 66 62 64 64 62 63 62
70 70 70 71 71 72 74 74 75 77 77 76 76 77 78 76 89 89 89 86 67 63 57 73 70 68 72 73 72 73 68 65 63
72 72 72 72 71 75 74 76 79 79 78 74 69 66 74 68 83 81 83 73 60 62 58 65 62 69 72 71 72 71 72 75 73
74 74 75 71 75 78 79 79 78 75 68 57 55 64 70 76 75 64 74 64 50 56 60 60 68 70 70 71 72 72 73 76 77
80 82 82 75 80 80 79 77 72 64 54 52 61 58 62 76 75 77 74 54 48 52 56 67 72 72 70 70 70 69 69 70 72
90 91 87 84 83 79 75 68 61 64 64 60 59 45 49 78 78 79 67 45 65 69 72 69 70 69 67 67 67 68 70 70 71
90 94 89 87 86 81 67 57 58 52 48 37 42 36 58 80 89 91 70 66 69 70 70 71 68 66 65 65 66 66 66 66 67
98 98 98 98 91 91 70 60 47 36 34 31 32 36 74 92 94 87 74 63 70 66 65 64 64 60 60 60 60 59 59 59 60
98 99 98 98 96 87 78 53 32 29 28 27 30 36 75 93 94 89 77 68 62 60 57 54 52 49 49 50 51 51 55 56 56
97 98 98 98 95 65 44 36 34 32 28 28 29 35 76 89 89 94 76 65 57 53 50 48 47 46 48 50 51 51 53 54 54
91 96 96 73 58 41 37 36 36 36 35 32 30 36 62 82 87 85 78 60 50 45 43 42 42 43 46 48 50 52 55 55 56
84 84 71 51 40 36 37 39 40 39 35 35 31 33 44 74 74 74 65 65 60 42 39 38 39 41 43 46 48 52 54 55 56
72 62 52 44 41 38 40 43 43 43 39 37 34 39 38 61 64 63 59 62 52 43 37 36 36 38 43 46 45 47 51 53 58
61 51 48 44 42 41 38 45 42 41 40 36 39 51 44 42 41 57 48 53 48 42 41 39 36 35 37 41 43 44 47 49 55
55 49 44 42 44 44 44 43 46 44 44 32 39 49 52 42 43 41 38 39 39 38 36 40 41 34 33 35 38 40 44 47 49
47 45 42 43 41 44 41 47 41 46 47 43 47 52 49 48 48 46 42 36 36 35 37 40 42 41 34 35 37 38 40 44 47
42 38 42 42 45 43 44 46 51 48 48 46 57 45 42 42 38 43 36 35 38 36 36 38 36 41 45 47 34 32 36 42 46
41 38 42 44 49 50 48 49 48 51 47 43 46 49 45 46 42 43 43 40 44 44 44 41 40 39 43 46 46 39 35 39 46
40 39 37 43 54 44 48 47 52 53 48 50 39 43 43 38 34 43 46 48 39 45 49 48 45 44 49 47 48 46 40 41 47
40 38 39 45 52 43 40 46 50 50 54 53 52 49 55 50 48 45 49 49 47 47 49 49 51 45 49 56 52 45 45 48 50

GFSFLT1_sfc_rhum_027.txt.gz
RH
62 64 67 69 70 69 69 70 71 71 72 71 72 76 75 76 87 82 74 88 73 63 59 69 75 73 69 64 64 65 64 64 63
66 67 70 72 72 72 72 72 75 77 77 75 74 71 71 89 94 94 91 89 64 61 61 70 66 70 73 74 74 74 72 69 65
70 71 71 71 72 74 74 76 78 78 75 68 61 63 71 80 82 81 80 70 58 62 63 64 69 75 74 74 74 75 76 77 78
74 74 73 71 74 75 76 79 78 73 59 52 56 64 73 83 74 66 75 64 49 55 60 61 71 71 71 71 68 70 72 73 73
79 82 81 73 78 81 80 77 72 61 52 54 54 69 72 78 76 76 73 53 47 54 60 74 71 69 70 65 66 67 67 69 68
89 91 87 83 83 80 78 72 63 62 65 56 51 50 75 78 78 79 64 55 68 73 72 73 69 68 66 64 64 65 64 67 69
91 94 90 88 87 83 71 61 58 48 40 37 43 53 79 89 93 95 72 67 69 70 72 70 67 66 62 64 64 64 63 63 64
98 99 98 98 93 94 70 56 45 34 34 33 36 66 87 97 98 89 73 68 65 61 63 63 61 58 56 56 57 58 58 58 58
99 99 98 98 98 89 77 51 33 30 28 30 33 64 90 97 97 91 79 66 61 59 55 53 51 50 51 52 53 54 56 56 57
99 98 99 98 97 81 60 37 35 31 30 30 33 62 90 92 96 95 76 67 57 54 50 47 47 48 49 51 53 56 57 56 57
98 98 98 98 94 53 42 38 36 37 35 33 34 54 85 90 90 87 78 64 52 46 44 44 43 45 46 48 50 55 55 56 56
95 97 98 84 57 39 40 39 40 40 36 34 35 42 80 85 84 74 69 68 60 45 40 42 41 41 46 46 47 50 53 54 59
94 95 90 52 43 42 43 43 43 42 38 36 37 42 55 76 74 67 63 64 54 46 39 37 36 38 40 43 44 46 48 51 56
82 80 65 46 44 43 41 46 41 40 40 36 46 54 47 69 57 63 56 60 47 51 41 40 36 35 36 38 40 41 44 47 51
69 61 48 44 46 44 43 42 47 43 43 36 46 51 54 48 58 55 41 51 41 41 38 42 42 37 33 36 39 40 40 44 46
60 50 39 38 37 43 40 44 39 45 49 48 51 52 53 50 51 50 48 40 40 37 40 42 43 43 44 43 40 38 37 40 44
52 45 38 37 42 44 45 48 51 48 48 48 58 49 44 45 42 46 38 40 41 41 39 41 41 44 48 52 46 44 36 39 43
51 43 40 37 41 45 47 50 48 50 48 47 50 52 47 49 44 45 44 42 46 45 46 43 43 44 49 53 55 51 44 42 45
51 44 40 37 42 45 45 48 55 52 48 52 38 45 47 39 35 44 48 50 41 46 50 49 47 45 52 54 56 48 46 47 50
59 52 44 39 42 44 44 51 54 52 55 54 53 50 56 50 44 40 47 51 50 50 51 52 50 48 50 53 54 49 51 53 56

GFSFLT1_sfc_rhum_030.txt.gz
RH
63 66 68 70 69 68 68 70 71 72 72 72 74 73 72 80 88 82 77 89 77 62 62 74 75 75 71 67 66 66 66 63 63
64 68 71 73 72 72 72 74 76 78 77 74 71 68 83 94 93 92 92 90 63 60 67 66 71 74 75 76 75 74 77 73 70
68 70 72 72 73 75 74 76 78 77 69 61 61 68 78 80 84 81 78 71 59 62 64 66 72 72 70 71 72 75 74 75 79
71 71 72 72 75 75 76 79 77 64 54 57 63 72 77 78 76 68 77 68 51 56 58 72 72 70 68 66 66 66 70 70 71
78 81 80 73 76 78 81 78 68 55 55 56 66 73 72 78 74 72 72 54 50 57 74 71 69 68 68 68 64 64 67 69 69
89 91 86 82 82 80 78 72 62 64 62 55 56 66 77 80 79 81 69 67 70 73 71 69 68 65 68 66 62 63 65 68 68
92 93 89 86 87 84 74 62 57 48 36 43 52 73 86 93 96 96 76 71 70 70 70 66 66 64 60 61 62 62 61 62 63
98 99 98 98 94 95 69 52 41 34 34 37 52 82 93 98 98 89 77 66 61 59 62 60 57 55 55 55 56 58 59 59 59
99 99 99 98 98 91 71 46 33 30 29 34 50 86 96 98 98 91 77 64 60 58 55 54 52 52 54 54 55 58 58 58 58
99 99 99 99 98 87 65 38 34 31 30 34 46 87 93 93 97 95 76 70 58 54 50 49 48 49 50 51 55 58 57 58 58
99 99 99 99 97 70 49 39 37 37 34 34 44 87 93 92 90 84 81 66 55 48 46 45 45 46 48 49 54 55 55 56 60
98 99 99 98 91 45 41 40 41 40 35 35 40 71 89 91 85 74 72 70 62 48 44 43 41 45 44 46 47 48 50 54 58
97 98 98 89 60 45 44 44 44 42 39 36 43 46 81 87 80 69 67 64 56 49 41 38 39 38 40 42 42 42 44 48 54
94 96 96 61 50 47 44 46 41 40 41 37 54 53 58 78 63 64 60 61 49 58 46 46 40 35 36 39 40 41 43 46 47
88 93 80 51 49 49 46 43 46 43 43 38 49 58 54 64 69 64 46 55 42 43 39 44 43 46 38 38 40 40 39 41 43
84 86 66 48 42 40 35 42 40 46 52 55 54 53 56 51 52 53 52 44 42 40 43 44 45 44 44 45 44 44 40 38 41
78 66 58 45 42 38 37 45 50 48 53 50 59 50 48 49 45 52 44 44 43 43 41 43 43 48 50 55 49 48 44 40 42
69 64 54 45 41 42 38 46 46 50 49 51 53 54 51 55 48 48 46 44 49 48 47 45 45 45 52 61 62 48 46 46 48
69 66 65 45 43 43 41 42 53 50 49 52 40 47 52 46 40 46 49 49 42 47 52 50 46 50 56 52 53 50 51 52 54
78 72 71 57 60 46 46 52 49 53 55 57 55 51 55 48 43 41 48 52 53 51 51 54 51 48 53 55 56 50 52 54 56

GFSFLT1_sfc_rhum_033.txt.gz
RH
64 66 69 69 70 69 68 68 71 71 71 74 73 71 78 75 57 57 65 67 67 62 70 68 74 75 70 75 67 73 68 64 64
66 70 72 71 70 69 70 73 76 77 74 71 68 78 83 62 61 63 66 63 61 64 64 72 73 73 73 74 75 74 77 79 75
68 71 73 72 72 72 74 76 77 71 63 61 65 77 78 66 64 61 54 65 58 59 61 71 70 69 69 70 71 70 72 74 76
68 71 72 73 76 75 77 78 69 56 58 61 68 76 72 50 50 46 47 68 52 55 66 71 68 66 67 66 70 71 72 72 71
76 80 78 74 76 77 80 74 59 56 57 67 75 74 67 46 46 42 43 55 54 69 73 72 69 67 66 65 64 64 65 65 66
70 83 84 82 82 81 77 68 63 63 62 58 66 61 43 42 44 44 71 72 72 71 69 68 65 64 64 61 62 64 65 66 67
71 80 88 85 86 84 72 66 60 37 26 31 51 42 48 55 61 56 77 70 70 68 67 65 64 62 61 61 61 61 61 61 62
75 75 76 75 85 64 53 40 28 28 26 30 40 49 58 59 62 67 76 63 60 61 60 58 57 57 57 56 58 59 59 59 60
81 78 81 79 76 65 48 32 26 25 24 26 40 51 60 59 62 64 75 65 59 57 55 54 54 55 55 56 59 58 59 59 61
81 79 80 79 76 64 46 29 24 22 22 24 38 53 62 61 59 56 78 70 59 54 51 50 50 50 51 54 58 57 57 59 60
82 81 81 78 74 63 42 29 26 25 23 24 40 56 62 59 57 53 53 69 59 50 47 47 46 48 48 51 53 53 55 58 58
80 80 82 76 74 55 38 28 28 28 24 24 36 54 59 58 54 50 48 47 64 52 46 42 45 42 44 46 46 46 48 53 56
77 81 79 76 71 47 36 32 32 30 27 26 29 45 56 57 48 46 42 42 38 47 42 40 38 40 41 40 41 41 43 45 50
71 75 77 76 67 45 36 34 31 30 30 28 32 33 49 54 45 40 42 41 39 39 49 48 42 37 37 39 40 41 41 43 45
76 74 75 71 64 49 37 34 33 31 30 26 35 39 36 51 46 38 37 35 40 36 31 30 33 47 43 41 42 43 43 39 41
78 81 74 67 61 50 36 35 36 35 36 40 40 40 37 42 44 41 34 37 31 30 29 29 29 30 45 44 45 46 46 40 41
74 75 75 64 58 46 38 44 46 36 39 37 40 40 38 36 35 38 35 33 31 31 31 30 31 33 32 43 46 44 44 45 44
71 75 73 74 58 49 43 41 42 42 41 40 38 43 39 40 36 38 35 34 32 30 33 32 32 32 36 44 50 51 51 50 50
75 72 73 74 64 53 45 39 40 44 44 42 36 37 38 38 36 35 35 32 30 31 34 32 32 35 35 44 48 47 48 50 52
80 71 72 73 71 61 58 46 45 41 45 48 44 40 38 32 32 36 37 37 33 31 32 33 32 34 35 38 45 48 49 53 55

GFSFLT1_sfc_rhum_036.txt.gz
RH
64 67 70 72 73 71 68 69 70 71 72 74 70 73 74 73 45 49 58 53 61 68 66 73 75 75 77 76 66 77 67 70 64
67 69 70 70 69 68 69 72 75 75 74 69 70 80 76 47 48 49 50 52 63 64 70 74 74 73 72 73 73 74 76 82 73
69 71 71 71 70 70 73 76 75 68 63 64 71 79 76 53 50 50 45 63 57 57 69 70 67 69 72 72 72 73 74 74 76
70 73 73 74 74 75 77 75 61 59 60 63 74 73 67 41 42 36 35 66 52 54 73 70 71 69 64 65 65 66 68 69 70
75 80 77 77 77 78 78 65 57 59 64 73 75 70 65 36 36 30 34 65 55 74 72 69 67 65 65 64 64 62 65 66 68
65 74 83 81 79 82 74 64 62 62 62 66 64 58 28 27 27 28 79 74 73 71 69 66 64 64 64 64 63 64 64 65 66
49 70 87 85 86 84 72 67 55 45 25 28 48 24 26 28 31 37 76 69 68 68 66 64 62 62 61 62 62 61 62 62 62
56 52 58 56 82 56 58 46 32 29 24 24 22 26 30 29 34 60 77 66 64 62 61 60 59 59 58 60 60 59 60 62 63
55 54 54 50 52 51 46 35 28 25 21 20 23 27 30 30 37 59 76 66 59 56 56 56 57 57 57 59 58 59 58 61 61
54 55 57 56 49 47 46 36 27 22 20 20 23 27 30 32 37 45 79 71 60 54 52 52 52 52 54 58 56 56 58 61 61
54 57 63 59 54 47 44 35 28 23 21 20 23 28 33 33 38 40 52 71 62 53 49 48 48 50 51 54 52 53 55 58 59
53 58 68 61 55 50 44 34 27 25 21 21 24 29 32 35 36 37 39 47 64 56 48 45 49 44 45 46 45 44 47 51 54
52 54 64 57 56 53 46 37 32 29 25 23 22 29 34 34 34 36 35 35 32 51 44 44 41 41 41 40 40 40 44 45 48
50 52 54 54 58 54 46 39 34 32 28 24 22 26 32 35 32 32 33 34 32 30 47 46 41 38 38 39 40 40 40 40 44
54 50 53 53 60 56 47 41 33 32 29 18 22 26 28 33 34 29 28 29 32 31 32 32 35 46 43 41 41 42 43 42 40
59 53 53 55 60 58 49 43 38 34 28 30 30 30 28 31 33 30 28 30 28 29 25 24 23 29 42 40 42 44 43 44 41
62 60 60 56 59 58 54 46 42 36 34 34 34 37 33 29 32 33 29 28 27 27 25 24 25 28 25 39 42 41 42 43 45
62 65 64 59 59 60 59 50 46 43 38 32 34 39 38 34 32 36 34 30 29 26 27 26 26 26 26 38 46 49 48 49 50
65 65 65 67 63 60 58 57 46 45 45 39 32 34 34 37 40 33 33 30 28 28 29 26 26 27 29 40 47 45 46 47 50
72 69 70 69 68 62 63 56 48 44 46 46 40 37 37 33 35 37 37 32 29 27 27 26 26 28 29 31 42 46 47 50 52

GFSFLT1_sfc_rhum_039.txt.gz
RH
65 71 74 75 73 71 70 69 71 72 74 71 70 72 69 74 44 48 57 60 68 65 74 77 78 75 78 75 78 79 80 74 65
69 71 72 72 70 69 70 72 74 75 72 68 75 75 73 53 45 46 48 59 64 64 74 72 72 72 73 74 74 75 75 80 80
69 71 70 69 68 70 74 76 72 67 65 67 76 75 74 50 46 47 49 65 58 59 69 68 67 69 69 69 69 71 72 74 74
70 72 71 71 71 73 78 71 62 62 62 68 73 71 70 41 41 33 40 65 53 65 71 71 68 67 65 66 66 65 68 72 71
76 81 77 76 76 78 75 62 60 62 69 73 71 65 64 34 35 31 44 65 57 74 71 68 66 66 65 65 63 63 67 69 69
68 74 82 80 79 82 70 62 62 64 70 68 61 65 29 27 28 36 80 75 73 70 67 67 65 65 64 64 64 64 64 65 66
46 70 86 84 87 83 71 64 60 63 30 34 49 29 26 28 31 53 78 70 69 68 66 64 63 62 62 62 61 61 62 63 63
48 55 58 63 86 66 65 61 41 34 28 29 24 25 28 28 33 67 77 67 66 64 62 61 60 59 61 61 60 60 62 61 63
49 46 50 48 58 51 52 43 34 31 28 24 24 25 29 30 40 66 77 69 62 58 58 58 58 58 60 59 59 59 62 62 65
55 49 54 48 44 44 46 40 32 29 24 23 24 25 27 28 37 55 79 72 61 56 54 55 55 55 58 57 57 59 61 60 63
53 52 67 64 48 44 43 40 34 29 25 24 24 26 29 29 34 49 60 73 66 55 52 52 52 52 56 53 52 53 56 58 60
46 48 64 68 63 46 44 40 33 31 26 25 25 28 28 32 34 40 50 55 68 61 50 49 51 48 49 49 46 45 48 52 53
46 48 60 69 66 54 49 44 38 35 32 29 27 29 31 31 31 36 38 45 42 59 53 51 45 44 44 42 41 42 43 45 47
46 48 50 65 65 58 53 48 40 41 37 33 29 30 33 32 31 33 37 38 39 44 55 56 52 45 42 41 40 40 40 39 42
50 49 48 49 56 58 56 50 44 42 39 29 27 33 33 35 36 33 32 35 39 37 45 49 44 47 43 42 40 40 41 43 40
56 55 49 50 53 58 55 52 50 47 41 38 37 37 32 31 37 35 33 35 34 36 39 34 35 44 48 42 39 40 40 42 42
57 60 58 53 56 57 59 57 53 48 41 44 48 50 40 33 32 37 33 32 35 36 34 32 34 39 39 52 41 38 40 41 43
59 63 62 59 58 62 63 59 56 55 46 43 50 57 56 44 36 40 39 34 36 33 35 32 32 35 40 49 50 51 47 45 46
64 68 69 68 63 64 62 60 58 57 59 52 38 44 48 52 53 44 42 38 32 34 36 33 33 35 40 47 53 50 44 43 46
72 69 70 78 72 70 67 64 62 63 65 60 56 47 47 46 52 52 48 41 37 34 32 34 33 34 39 45 50 48 44 45 48

GFSFLT1_sfc_rhum_042.txt.gz
RH
72 77 78 76 74 72 70 71 73 76 74 71 73 71 70 78 62 66 74 76 64 72 77 77 74 75 77 76 76 78 76 70 70
72 74 75 74 72 70 72 73 76 75 71 72 74 71 77 73 56 69 68 70 62 71 72 73 75 72 72 73 73 77 76 77 78
71 72 73 71 69 72 75 75 71 68 68 71 75 75 78 58 59 66 72 70 56 67 69 68 65 67 68 69 70 71 75 75 75
71 72 71 70 73 76 76 68 65 63 66 71 70 71 71 61 52 49 68 66 56 70 70 68 68 67 66 65 65 68 70 72 71
77 82 80 78 77 81 71 64 63 68 70 71 66 68 69 53 46 65 77 64 68 72 70 68 68 67 66 65 65 66 67 69 69
84 82 83 85 84 81 67 63 62 72 76 69 69 66 57 43 48 91 82 74 73 69 68 66 66 66 65 64 64 64 65 65 65
66 85 87 86 88 83 70 64 64 67 56 58 58 48 42 46 58 88 81 71 70 69 67 65 63 63 63 62 62 63 63 63 63
76 92 92 97 93 88 81 76 63 54 51 46 45 41 43 50 74 84 79 69 67 65 63 62 61 62 63 60 60 62 62 64 66
72 78 79 85 92 91 86 81 67 54 42 39 37 38 45 49 85 86 79 72 64 61 60 60 60 61 60 60 60 62 62 65 64
72 70 67 66 78 78 77 70 55 46 40 35 36 37 41 42 77 90 81 74 64 59 58 59 58 59 59 58 59 61 60 63 63
74 70 70 72 77 69 69 65 55 48 41 36 37 38 42 44 78 80 83 75 70 60 56 57 56 58 59 56 56 57 58 60 60
72 73 82 80 70 77 66 62 55 50 39 41 38 40 43 46 56 74 76 76 71 65 54 54 55 55 56 52 50 50 52 54 53
67 72 84 86 81 72 77 70 61 55 48 46 43 44 46 46 47 63 69 70 63 68 62 56 54 51 50 47 45 46 46 48 47
64 70 80 84 87 77 72 71 59 59 57 49 47 46 51 48 42 50 58 66 66 66 61 66 61 54 48 46 45 45 42 42 43
65 67 71 77 83 83 74 68 67 64 61 39 40 46 50 52 53 50 47 53 58 61 60 63 56 59 48 46 45 44 43 43 41
74 68 68 71 76 76 72 76 71 72 63 54 52 52 42 43 55 52 52 50 48 58 58 58 58 56 51 49 45 41 41 41 44
76 77 77 72 72 76 74 73 78 73 65 58 64 64 57 48 43 56 48 49 50 49 50 49 51 56 62 55 44 41 40 41 43
86 72 86 86 79 77 78 80 73 73 71 56 68 78 72 59 51 46 57 47 52 49 46 39 37 46 55 56 52 45 48 48 46
82 84 80 80 92 86 87 87 81 77 64 69 54 67 62 61 57 52 54 50 44 42 48 40 38 40 57 53 61 57 49 44 44
86 84 86 86 85 89 95 93 85 72 72 68 86 82 65 64 68 65 55 53 50 47 42 40 40 38 45 58 63 58 50 45 47

GFSFLT1_sfc_rhum_045.txt.gz
RH
78 79 79 78 76 71 71 72 76 75 73 72 70 69 72 77 75 84 76 74 72 76 77 73 77 76 76 75 78 76 75 75 79
76 78 77 75 72 71 72 75 76 73 72 72 71 73 79 71 78 78 76 73 70 72 73 72 72 72 71 73 74 76 77 77 78
74 75 75 73 71 73 74 74 71 70 71 72 72 73 75 63 73 77 80 69 65 67 68 66 67 68 69 70 71 73 76 75 75
73 74 73 71 74 77 75 69 67 66 69 68 66 69 72 56 67 60 74 68 65 69 68 68 69 67 66 67 68 67 71 70 70
76 82 79 77 79 80 70 67 65 68 70 67 69 69 67 55 63 72 80 67 72 70 70 69 68 67 66 66 66 66 67 68 67
87 88 86 84 86 78 68 66 68 76 77 71 69 68 57 56 95 94 80 73 72 69 67 67 67 66 65 64 64 65 65 65 66
80 88 88 88 89 82 71 67 69 71 68 60 62 50 51 60 97 97 83 73 70 69 68 67 64 64 63 63 64 64 64 66 66
89 98 96 97 96 93 82 79 73 67 60 54 44 47 49 66 96 88 80 70 68 68 65 62 64 64 62 62 62 63 66 65 64
91 93 98 98 98 96 94 90 71 62 59 53 46 43 47 82 98 92 83 74 67 64 62 62 63 64 61 60 62 64 66 64 64
82 89 88 95 98 98 97 92 82 71 50 43 41 42 47 93 96 96 85 79 70 63 62 61 62 63 61 60 63 62 65 63 63
77 81 81 83 88 92 87 86 75 58 49 41 40 42 46 77 93 94 88 80 74 64 61 60 60 62 60 60 62 61 62 62 62
72 78 86 74 78 81 81 79 66 56 49 42 41 44 47 71 89 87 88 83 79 72 61 59 59 62 60 58 57 59 58 57 57
82 80 87 85 82 82 86 79 72 62 52 49 46 47 49 52 86 85 82 80 74 76 68 61 58 59 60 57 54 54 55 54 51
71 78 82 88 85 82 82 84 63 64 59 51 51 50 51 53 51 82 78 76 74 76 74 71 69 62 56 54 51 52 50 52 49
67 74 80 87 89 86 91 89 70 59 61 44 46 53 54 58 58 60 68 74 71 70 67 79 73 68 57 52 50 52 48 47 46
75 72 78 85 87 83 84 87 77 73 68 60 57 57 51 50 59 60 61 65 66 69 65 66 65 69 63 53 51 50 49 48 48
93 78 82 87 84 88 90 88 89 79 71 71 63 57 56 53 46 60 55 57 58 62 58 59 58 62 68 66 54 48 47 46 48
94 96 94 93 92 88 86 91 88 85 91 74 73 81 70 65 57 46 62 58 58 56 55 54 50 55 66 64 58 51 45 47 48
90 93 95 92 90 88 91 90 88 93 87 91 57 82 71 66 65 67 61 67 53 51 58 50 44 46 54 60 63 55 51 51 50
91 90 93 97 95 92 90 96 96 89 90 81 91 90 81 70 73 75 82 78 68 51 45 47 43 43 52 61 62 57 56 49 48

GFSFLT1_sfc_rhum_048.txt.gz
RH
77 80 79 76 74 71 72 75 75 74 73 71 70 72 73 80 91 87 80 87 75 75 74 76 76 74 73 76 76 76 76 79 78
78 80 79 76 72 71 73 75 74 73 73 71 72 71 74 79 84 81 80 84 72 72 70 72 73 72 74 71 75 76 76 77 76
77 78 77 74 72 73 74 75 72 71 71 71 71 70 73 73 81 83 80 77 66 62 66 68 69 69 68 70 71 76 76 76 76
76 77 75 73 73 76 74 71 69 69 69 69 68 70 70 74 79 71 80 71 67 70 70 66 68 67 67 67 68 70 75 73 70
78 82 80 76 78 78 73 69 66 68 69 67 67 68 69 72 70 77 79 69 69 71 71 67 68 66 66 65 66 65 66 66 67
89 89 85 84 85 78 70 68 70 78 78 73 68 64 59 70 84 81 76 76 72 70 69 67 67 65 65 65 65 65 66 66 66
88 92 90 87 88 83 72 69 73 80 76 69 64 53 54 89 97 97 84 76 70 67 69 68 65 64 63 65 64 64 65 66 66
96 97 97 98 96 96 86 85 81 74 62 55 49 48 54 78 98 93 85 74 70 70 68 64 65 63 62 64 63 65 65 64 64
97 98 98 98 99 97 96 91 79 66 61 64 53 50 56 83 98 96 85 77 69 68 63 63 66 63 61 62 62 66 64 64 65
97 96 98 98 99 98 98 97 92 79 70 56 50 45 52 88 98 98 90 82 74 66 64 62 65 63 61 63 63 66 64 64 65
86 90 92 95 98 98 98 97 96 86 70 53 45 44 51 91 96 97 95 85 79 70 64 63 63 64 62 62 64 65 64 64 64
80 82 86 83 87 96 98 96 94 79 59 49 40 44 48 67 95 96 96 91 84 76 66 64 62 64 62 62 63 63 64 63 62
82 78 81 80 80 84 92 91 91 77 64 52 46 46 50 56 94 95 93 92 84 82 74 68 63 63 63 60 60 61 60 59 59
76 78 77 89 85 84 87 92 83 80 70 56 52 52 53 56 68 94 91 89 86 87 80 78 73 69 64 61 58 58 58 57 54
77 79 82 88 93 88 94 90 87 76 70 50 47 57 57 60 65 85 82 85 81 80 79 88 84 76 66 61 57 55 55 55 53
85 86 89 94 92 86 90 90 92 84 75 56 54 55 54 55 64 66 79 83 77 79 75 77 84 76 70 65 56 55 54 52 51
95 92 89 91 84 94 95 94 94 93 88 82 63 59 58 55 48 63 61 70 76 74 71 75 72 73 81 76 64 55 54 52 52
96 96 96 94 91 89 93 95 95 91 96 91 86 76 73 71 62 53 59 63 70 76 78 70 66 67 74 70 69 67 56 50 48
95 95 97 95 95 93 94 93 93 97 96 96 82 91 77 71 77 68 64 71 64 68 80 71 68 62 62 68 72 69 58 49 48
96 95 95 97 97 96 94 96 97 96 91 95 94 96 94 88 82 79 82 89 79 70 60 64 62 54 53 61 68 65 55 49 50

GFSFLT1_sfc_rhum_051.txt.gz
RH
78 78 77 74 72 70 73 74 74 73 72 70 71 71 77 83 90 91 88 91 75 74 78 76 75 74 77 77 73 76 78 76 71
79 79 75 75 72 71 74 74 73 74 72 71 70 68 83 88 89 88 91 87 69 71 72 73 72 72 74 71 77 77 77 78 73
77 80 78 75 72 71 74 73 71 70 70 70 67 76 81 78 85 86 88 81 67 62 68 69 69 68 69 70 70 74 74 75 77
79 78 76 74 72 73 74 72 69 69 69 68 67 76 79 82 85 76 82 78 62 64 62 64 67 67 67 68 66 64 71 68 68
79 83 82 76 76 77 74 69 66 66 68 66 67 70 71 84 79 81 82 68 70 69 66 64 66 65 64 64 64 62 64 64 66
89 90 84 83 84 79 72 68 68 78 79 74 70 61 62 73 76 79 74 69 71 70 65 64 65 63 63 63 64 64 64 65 65
91 93 89 88 88 84 74 71 73 80 76 69 60 56 57 86 94 92 77 76 72 69 66 68 64 62 63 63 63 63 64 64 65
98 98 98 97 96 97 90 88 86 80 63 57 55 49 53 67 98 94 86 79 69 68 70 66 64 62 62 63 62 63 64 63 64
98 99 98 99 99 98 96 96 89 75 65 66 62 55 56 69 98 97 90 81 71 68 69 64 64 63 62 61 62 64 62 62 64
97 98 98 99 99 99 98 97 94 87 71 67 61 51 51 62 97 99 94 86 77 70 66 64 66 63 61 62 63 64 63 63 64
96 97 98 98 98 99 98 98 98 97 90 75 53 47 46 58 93 98 97 89 84 75 67 65 65 65 62 62 64 65 64 63 64
89 93 98 94 98 97 98 98 97 98 88 75 59 48 46 53 92 97 97 95 89 82 68 67 65 65 63 62 64 64 65 63 63
89 88 90 90 94 96 98 98 98 98 96 82 64 49 49 52 76 96 97 97 94 88 80 74 67 65 64 62 63 63 64 64 62
86 84 84 91 90 89 90 96 96 97 95 79 66 57 52 53 54 93 96 96 95 95 86 84 80 74 65 63 62 62 62 61 60
83 84 87 92 91 91 96 92 96 91 88 72 61 57 58 58 62 75 90 96 94 91 90 91 90 82 72 64 62 60 60 60 58
86 83 89 95 92 88 91 94 93 95 86 74 69 62 54 58 58 66 80 93 90 89 83 84 94 89 80 72 65 61 58 58 58
97 94 92 92 90 96 96 96 96 97 95 94 84 76 71 61 54 62 60 70 91 84 79 80 82 89 93 87 73 64 58 58 56
97 97 98 96 95 94 95 96 96 94 98 94 93 79 80 81 68 60 61 63 85 88 85 77 77 79 80 81 76 77 68 58 56
97 97 98 98 98 97 95 94 95 98 97 98 92 91 75 79 77 72 63 66 70 76 92 83 78 73 72 74 78 76 73 60 54
90 97 98 98 99 98 97 97 98 98 95 97 96 92 95 87 93 93 88 86 91 87 70 72 70 65 64 69 75 75 66 59 53

GFSFLT1_sfc_rhum_054.txt.gz
RH
76 76 76 73 70 72 72 73 73 72 72 72 71 73 79 83 92 94 92 91 74 77 77 75 74 73 77 76 76 77 77 78 61
78 79 77 74 71 73 74 73 73 74 73 72 67 77 83 88 88 93 92 89 72 73 74 73 72 69 72 71 74 75 77 76 68
81 79 78 75 72 72 73 72 71 72 72 71 67 81 81 79 86 89 92 80 65 64 67 70 70 68 68 67 69 70 72 76 76
81 79 77 74 72 73 74 72 71 70 71 70 70 82 80 86 86 76 86 76 60 63 60 64 68 68 67 67 66 65 66 72 72
84 84 82 76 75 76 74 70 68 70 71 69 66 71 73 85 83 85 83 70 68 64 61 62 66 65 64 64 63 62 60 69 64
91 91 86 84 83 80 74 70 69 76 78 74 67 60 63 78 78 80 72 70 73 69 61 64 64 62 62 63 63 63 62 63 64
92 93 89 86 88 86 73 70 74 79 77 71 61 58 57 69 89 91 74 70 75 68 64 68 63 61 62 62 61 62 63 64 66
98 98 98 97 96 97 91 91 89 81 67 60 58 51 54 61 94 92 85 75 74 69 69 67 64 61 61 62 61 62 63 63 65
98 99 98 98 98 98 97 97 93 83 70 68 66 59 50 60 86 95 93 86 73 68 67 66 64 62 61 62 61 62 61 61 63
97 98 98 98 99 99 99 98 96 93 81 68 67 66 55 55 74 98 96 91 81 71 70 65 66 65 61 62 61 64 62 62 64
97 97 97 98 98 99 99 98 98 97 96 93 80 66 55 54 68 95 97 93 88 79 71 67 66 66 63 62 62 64 63 62 63
94 97 98 97 98 97 98 98 98 98 96 95 84 68 56 52 59 90 97 96 92 88 73 69 67 65 65 62 62 64 64 63 63
96 97 97 96 98 98 98 98 99 99 98 98 93 76 59 51 53 84 96 98 97 93 86 78 71 68 64 64 62 63 64 65 63
96 94 92 95 97 98 96 98 98 98 98 97 96 86 70 56 49 66 90 96 97 98 91 87 84 80 69 64 62 61 64 64 64
94 93 93 95 97 97 98 95 98 96 96 92 86 83 73 55 59 56 70 92 95 97 96 95 91 86 78 68 64 61 62 64 62
91 91 96 96 94 89 94 96 95 97 95 84 91 78 69 64 59 62 71 83 95 97 96 93 93 93 84 77 68 64 61 62 62
96 94 93 95 96 97 97 97 98 98 97 96 90 91 85 71 61 64 62 67 93 96 94 94 93 93 94 92 78 70 62 61 61
97 98 98 97 97 96 96 97 97 96 99 94 95 89 88 80 78 64 66 65 82 93 94 91 89 90 93 85 82 82 75 62 58
95 98 99 99 99 98 97 96 96 98 98 99 93 92 80 92 94 73 59 60 66 79 92 90 87 80 79 78 81 81 82 67 61
89 93 96 98 99 98 99 99 99 98 97 98 98 96 95 90 93 95 92 80 80 78 77 78 77 73 79 76 80 82 77 76 76

GFSFLT1_sfc_rhum_057.txt.gz
RH
77 76 74 72 74 72 72 73 73 74 74 72 72 77 79 76 65 69 69 65 73 74 75 74 72 72 75 76 76 76 79 63 61
79 78 76 73 74 74 72 73 75 74 74 70 71 79 80 57 64 68 69 65 68 65 70 71 70 68 70 71 72 72 76 72 72
76 78 77 74 72 74 73 72 73 73 73 67 74 81 77 59 58 67 67 75 62 63 65 70 69 70 70 68 67 67 69 75 77
81 80 77 74 72 75 76 73 72 72 71 67 80 79 78 53 54 52 56 77 62 62 62 67 68 66 66 66 65 66 64 67 68
84 80 82 76 75 76 75 71 69 72 71 67 69 72 74 52 56 53 48 71 68 65 63 66 66 64 64 64 63 61 60 61 66
75 87 88 84 81 79 73 69 71 77 78 73 66 62 41 46 48 46 61 66 73 65 63 66 64 62 62 64 64 64 61 60 62
73 83 88 86 87 86 73 70 74 67 50 49 54 40 37 38 48 48 76 67 70 67 66 68 64 61 62 62 62 62 64 64 64
75 75 74 75 87 74 71 67 60 55 45 42 36 37 36 34 40 59 82 78 75 69 70 68 64 60 61 62 61 63 64 64 64
76 74 76 78 77 79 76 68 65 61 49 42 40 40 36 34 38 53 87 87 79 71 65 69 65 62 61 62 60 62 61 61 63
71 71 72 76 78 78 78 75 69 66 62 53 46 42 41 37 36 42 87 92 88 76 68 70 66 65 62 62 60 63 61 62 63
71 68 69 70 73 73 76 75 73 70 69 66 63 58 49 40 37 38 48 90 92 84 73 70 67 67 65 62 62 64 64 62 63
70 68 68 66 67 70 74 74 76 76 72 69 64 64 54 45 39 38 46 56 91 91 80 72 69 67 63 66 62 64 62 64 63
74 72 72 68 70 71 73 72 75 75 72 68 64 66 64 57 48 40 42 51 58 77 89 82 74 70 68 62 65 63 65 65 64
76 75 73 71 72 73 73 73 74 72 71 72 68 69 67 62 57 49 43 45 56 58 78 91 88 84 72 67 61 65 65 65 66
78 76 76 74 75 75 76 75 76 75 72 75 74 69 66 62 58 53 50 46 50 56 65 67 71 89 82 72 67 63 63 67 66
76 75 77 79 76 72 73 75 80 79 82 81 73 70 65 62 58 55 58 55 52 52 58 63 67 68 87 82 73 67 63 62 68
82 80 78 77 77 78 78 82 82 86 88 85 82 86 65 61 57 53 51 50 48 51 55 58 64 69 68 72 83 75 66 62 64
88 88 88 88 87 86 84 86 87 89 90 86 87 90 77 70 62 54 52 48 48 48 56 59 59 60 65 77 78 86 82 67 62
65 84 92 95 96 96 93 88 89 91 94 94 90 87 80 93 94 74 54 50 46 53 57 58 62 71 77 79 82 82 84 76 68
78 78 82 86 89 88 90 90 96 95 95 95 92 90 91 88 95 96 81 78 70 62 53 50 62 67 61 62 74 81 77 73 70

GFSFLT1_sfc_rhum_060.txt.gz
RH
76 72 72 74 72 72 72 74 75 75 73 72 75 75 71 69 47 49 56 66 70 71 73 74 72 70 74 74 75 76 68 62 63
78 76 73 75 73 72 74 75 75 75 72 69 76 76 73 41 43 46 47 56 67 68 67 70 70 70 70 70 70 71 77 77 77
79 78 74 72 74 73 72 72 74 74 70 71 79 76 72 45 41 44 44 70 64 64 68 69 69 68 68 68 70 67 68 72 77
78 79 76 73 74 75 74 72 72 72 68 74 80 77 72 39 38 32 36 77 63 63 64 68 67 64 65 65 65 65 64 64 68
81 81 80 75 76 77 73 70 70 71 69 64 70 70 72 36 38 34 37 67 68 63 64 65 64 62 63 65 65 63 61 62 63
62 82 85 81 78 77 72 69 72 74 75 66 62 61 33 31 31 30 59 63 67 65 66 66 63 61 62 63 63 64 63 62 61
49 73 88 83 84 83 72 70 74 70 36 40 59 35 33 28 30 30 68 70 64 76 66 68 64 60 61 61 62 63 65 64 63
46 46 50 52 81 53 60 57 44 40 34 33 29 30 30 26 26 40 71 74 71 72 71 69 65 61 61 61 61 63 63 64 65
46 41 45 49 45 48 50 46 47 49 43 32 30 30 30 26 26 36 74 78 78 76 73 71 67 63 62 62 60 63 61 61 63
51 44 40 41 43 45 46 48 46 46 44 43 41 39 35 32 30 29 68 77 83 83 74 69 70 66 65 62 62 63 61 61 63
54 50 48 42 43 44 47 49 51 50 49 47 43 44 45 41 35 32 34 77 83 87 82 72 71 67 66 64 63 63 65 62 63
54 52 51 49 46 47 49 51 53 54 52 52 48 47 46 46 43 39 37 40 83 86 85 79 71 66 65 66 66 66 65 63 63
55 53 53 51 52 53 53 53 54 54 52 51 49 49 50 50 48 46 43 42 39 67 85 86 79 72 70 68 67 68 68 65 66
56 55 54 53 56 55 56 56 56 57 54 53 52 52 53 52 50 49 48 47 44 42 64 89 92 88 77 71 67 66 69 68 69
56 56 56 55 57 58 57 60 57 58 57 55 57 56 54 53 51 50 48 47 48 45 46 47 53 92 87 78 70 67 65 70 70
58 58 57 59 61 59 57 57 61 61 58 66 62 58 55 54 51 46 46 48 48 48 46 46 44 47 88 85 79 72 68 66 72
62 64 64 64 65 63 63 66 70 70 67 76 78 78 51 45 48 47 47 45 43 44 45 44 43 46 47 57 84 80 73 67 66
76 78 80 81 83 81 78 79 82 89 80 75 81 86 60 56 50 51 46 44 42 42 44 45 46 46 46 56 67 85 85 77 71
46 60 76 87 91 94 92 90 91 92 95 91 86 85 81 88 82 60 53 45 44 48 49 49 47 49 57 72 81 85 82 77 76
58 56 60 62 66 72 79 80 84 90 91 92 93 92 89 84 95 91 79 68 73 64 56 47 48 47 50 52 68 77 74 71 71

GFSFLT1_sfc_rhum_063.txt.gz
RH
71 71 74 73 72 72 74 76 76 74 74 74 72 68 69 78 44 46 60 60 69 68 72 73 72 72 73 73 73 78 74 73 74
75 74 76 74 73 74 74 74 75 73 70 75 73 69 72 39 42 45 51 60 65 67 70 70 68 68 68 70 71 70 75 78 77
78 75 73 74 73 71 73 73 73 72 69 75 75 72 76 40 39 41 51 71 64 65 68 68 64 63 64 65 66 68 68 70 73
78 78 74 73 75 74 72 71 72 71 68 78 76 74 75 44 37 30 46 79 62 63 66 68 65 62 64 65 64 63 64 64 67
83 83 79 74 76 76 72 70 70 70 68 66 69 67 73 36 35 34 43 63 68 62 65 67 64 61 64 65 67 65 64 64 65
62 85 86 80 78 75 71 69 71 72 74 66 60 67 35 30 31 32 64 58 62 67 65 66 64 60 62 63 64 66 66 66 66
51 73 86 83 83 81 72 70 72 71 38 50 65 44 32 30 32 36 67 66 64 67 68 67 64 60 61 61 63 65 67 67 67
42 48 56 58 84 58 65 64 52 38 35 33 30 30 31 28 30 44 64 66 69 75 71 70 65 61 60 61 60 64 63 64 65
41 38 41 45 47 44 46 43 42 45 43 35 31 30 31 30 31 36 66 64 70 75 74 73 68 64 62 62 60 63 61 62 64
47 40 36 37 37 39 41 42 41 42 41 40 39 37 36 34 35 35 70 67 67 77 77 72 72 68 65 63 62 62 62 61 63
50 46 44 38 38 39 40 44 47 47 45 46 42 42 43 43 41 39 42 68 72 73 80 77 70 71 68 69 65 65 64 63 62
48 47 47 46 43 41 42 45 47 50 48 49 47 46 44 45 45 45 45 50 78 76 68 75 73 69 68 68 69 68 68 68 63
50 50 50 48 48 50 50 50 52 52 51 49 47 45 46 47 48 49 49 50 46 72 76 76 75 72 68 67 66 69 70 70 68
52 52 52 50 53 53 54 54 53 55 54 54 52 51 52 50 49 49 51 51 54 52 71 84 85 87 80 70 67 69 72 72 70
51 52 52 51 57 57 58 58 60 62 64 59 58 58 57 56 54 50 46 49 53 54 55 61 66 88 83 78 72 67 68 73 73
55 57 57 60 60 59 57 60 68 71 66 73 68 65 58 56 54 52 49 50 51 52 54 54 54 56 87 84 79 75 69 69 73
59 61 63 66 71 63 63 65 72 74 72 84 81 86 65 51 52 53 52 52 51 53 50 50 50 55 56 66 85 80 75 72 71
71 78 84 86 90 89 86 91 92 94 90 88 94 89 73 64 61 60 56 52 53 49 51 50 52 53 58 63 68 82 82 80 78
51 60 73 86 91 96 94 92 95 96 96 95 92 91 92 93 87 63 62 57 51 52 56 55 54 55 61 70 76 81 77 73 71
52 51 56 62 64 67 72 76 79 84 90 90 90 88 89 88 98 89 82 71 67 62 62 58 54 52 57 61 74 75 72 70 70

GFSFLT1_sfc_rhum_066.txt.gz
RH
72 73 74 74 76 75 76 76 75 77 75 70 68 68 74 69 64 72 73 77 67 70 71 68 68 69 71 74 73 76 78 78 78
72 76 75 75 75 75 75 75 74 72 76 72 70 70 80 58 58 69 75 73 65 66 66 63 61 63 65 66 71 71 71 74 76
74 76 76 74 74 74 74 74 74 71 76 78 74 75 78 57 50 72 83 74 65 66 69 66 61 61 64 65 64 66 67 70 71
78 75 75 76 75 74 74 73 73 70 74 79 76 77 78 71 50 61 85 78 64 65 68 68 62 62 64 66 66 65 66 67 70
84 85 81 78 78 76 74 72 72 72 68 67 72 71 72 69 48 58 72 69 67 64 67 68 63 62 63 64 66 67 66 66 67
81 86 85 84 81 76 73 71 72 77 77 72 69 68 62 48 46 61 66 57 61 68 67 67 63 61 62 63 66 67 67 67 70
75 90 88 87 86 83 75 72 75 75 71 77 73 69 59 49 44 68 69 60 62 68 70 68 64 61 62 62 64 66 66 67 68
78 95 92 96 94 92 86 85 82 75 56 57 54 49 45 48 46 65 68 58 63 68 74 71 66 62 62 62 62 64 62 64 65
62 76 78 80 88 85 84 79 74 63 59 54 48 47 48 50 50 66 69 66 61 72 74 75 70 66 63 63 62 65 61 62 65
72 60 60 64 67 65 67 66 62 62 60 58 56 53 53 53 53 57 74 68 64 64 76 76 75 71 67 64 64 63 64 61 63
72 69 62 59 58 61 61 64 68 68 67 64 61 60 61 61 60 59 66 73 67 66 65 77 75 74 72 67 64 63 65 66 62
68 70 72 67 61 56 62 64 68 72 68 70 66 66 65 66 64 62 62 68 80 75 62 64 70 69 70 68 70 68 68 68 66
69 71 72 70 70 70 72 73 76 77 76 76 72 69 66 65 66 67 68 66 61 76 76 73 68 69 68 67 67 70 72 71 68
70 74 74 70 74 76 75 77 79 81 77 66 62 64 65 73 65 70 68 68 65 66 80 82 80 83 74 69 67 68 73 74 73
70 73 72 71 68 66 68 69 71 73 76 70 67 73 78 78 76 74 66 67 65 68 66 86 87 88 80 73 70 67 67 74 77
71 76 68 64 69 68 67 69 73 77 78 86 93 90 83 78 77 75 72 68 67 67 71 75 76 75 84 82 75 70 69 69 71
73 77 77 73 79 76 75 81 85 83 83 90 95 94 83 78 74 78 68 70 67 66 61 65 64 70 74 80 83 80 78 74 73
81 87 90 93 96 97 95 95 95 96 94 89 93 98 93 91 77 73 73 69 71 69 64 64 62 62 69 73 76 78 75 71 71
60 65 80 93 96 98 98 97 97 98 98 96 98 95 94 96 91 82 80 76 66 77 71 70 64 62 70 83 81 76 72 69 68
63 64 70 74 78 82 86 88 92 95 95 95 92 96 96 97 98 93 93 89 78 77 79 74 75 72 75 79 81 77 74 74 74

GFSFLT1_sfc_rhum_069.txt.gz
RH
72 73 76 78 76 76 76 76 78 75 72 68 68 70 73 77 78 81 76 79 67 65 63 62 65 66 70 74 72 73 76 75 77
74 75 76 76 77 76 76 73 74 78 74 70 70 72 76 64 79 83 81 74 67 68 64 61 61 62 64 68 71 69 70 73 74
76 76 76 76 76 75 75 74 72 77 77 73 72 77 79 55 80 87 86 76 67 70 68 63 61 62 64 64 64 67 70 70 69
75 77 76 74 74 75 75 75 73 72 77 74 73 76 76 69 79 76 92 77 66 68 70 66 63 63 64 66 66 67 66 68 70
83 84 83 78 77 76 75 74 73 71 67 67 71 68 71 67 61 72 88 75 66 67 69 68 62 63 63 66 67 68 68 68 68
88 88 87 86 81 76 73 73 72 76 77 72 68 71 68 66 60 63 68 63 65 68 70 68 62 62 61 64 67 67 68 69 70
84 91 90 88 86 82 75 73 75 76 78 80 76 72 68 57 59 67 69 59 60 68 72 70 64 63 63 62 65 64 64 64 67
97 98 97 97 94 96 89 88 86 82 76 76 75 65 53 52 53 65 70 59 57 67 74 73 68 65 65 62 64 62 61 64 66
95 98 97 97 97 96 95 94 87 82 67 57 55 52 52 54 56 66 74 66 54 64 74 76 72 68 66 65 64 64 61 63 66
77 82 89 92 94 93 93 90 82 80 71 67 64 58 58 58 58 63 80 70 67 59 68 74 77 73 69 67 67 67 65 62 64
79 75 68 69 75 72 72 72 71 74 76 71 69 66 64 64 66 66 67 79 71 68 59 66 71 74 74 71 69 69 69 68 65
75 78 75 69 65 60 68 70 77 79 76 79 75 74 74 70 69 68 68 70 81 74 63 62 65 69 70 72 73 69 69 70 69
75 76 78 76 75 70 74 77 79 83 84 84 79 77 73 65 65 73 73 69 64 75 76 74 68 67 68 68 68 72 74 72 71
74 78 77 75 81 82 80 83 86 87 84 74 70 69 70 69 66 74 75 80 72 66 79 82 80 79 71 67 66 67 71 77 76
74 78 80 78 76 72 71 73 75 74 76 73 73 76 79 79 85 82 75 80 75 75 72 85 85 88 78 72 69 69 68 71 75
75 80 79 71 67 66 68 73 75 79 81 84 93 93 89 88 88 83 86 76 71 76 78 81 83 80 81 81 76 72 69 69 71
76 82 81 78 77 74 76 82 85 84 85 85 91 94 87 78 78 86 80 71 70 69 68 69 71 80 85 89 81 80 79 75 72
82 85 88 91 93 94 94 94 93 95 94 88 92 96 96 93 77 74 76 70 71 68 69 67 68 71 73 79 81 75 72 68 67
62 71 81 93 96 96 97 97 97 98 97 97 97 95 95 96 94 86 85 80 72 76 76 72 71 80 85 83 83 80 76 73 72
68 70 73 74 79 81 87 90 92 97 98 98 95 93 95 94 96 96 94 92 92 86 83 82 81 76 80 82 87 81 77 74 72

GFSFLT1_sfc_rhum_072.txt.gz
RH
72 72 77 76 76 75 77 75 74 73 71 70 69 73 77 78 84 87 80 81 63 62 62 62 63 65 72 72 69 69 70 74 74
74 77 76 75 76 75 74 76 75 74 72 70 69 71 77 80 88 87 84 80 68 66 62 62 62 64 64 69 71 68 66 67 71
74 76 77 77 76 76 74 73 76 77 74 70 70 76 69 76 89 90 90 76 70 70 66 63 63 64 65 65 67 68 70 68 66
75 77 77 77 76 76 76 73 74 77 74 70 71 73 76 76 90 83 92 78 68 70 69 64 63 63 65 66 67 66 67 68 69
81 86 82 77 76 77 76 75 72 69 67 68 69 68 70 72 86 91 95 75 67 69 70 65 63 63 64 66 67 67 68 69 69
90 90 88 86 80 76 74 74 73 77 77 74 73 74 72 66 68 67 76 71 69 69 70 66 63 62 62 66 66 67 68 69 70
87 92 91 89 86 83 76 74 76 75 79 81 78 76 72 62 64 66 69 58 59 70 74 70 64 63 62 63 64 63 64 64 67
98 98 97 97 94 96 91 91 92 84 80 77 81 71 68 60 57 64 72 61 54 62 72 75 68 65 64 63 64 61 62 64 66
98 99 98 98 98 96 96 97 91 87 82 68 65 57 56 57 59 63 78 70 55 55 72 77 74 69 67 65 65 63 61 64 66
97 97 98 98 97 97 97 96 92 92 85 76 69 64 62 61 60 64 80 77 69 58 62 73 77 75 72 69 68 69 66 64 65
83 81 92 95 96 97 91 95 90 81 81 76 73 71 70 67 68 71 67 81 74 70 60 61 67 71 74 74 71 71 71 69 67
81 84 76 77 76 80 78 77 81 86 83 85 81 80 81 78 73 73 72 71 84 78 64 64 63 66 68 72 75 75 74 73 71
81 82 81 76 75 70 73 79 83 87 88 88 82 82 75 68 69 68 69 73 68 75 80 75 70 68 66 66 68 69 76 75 75
78 81 80 80 81 81 78 83 85 87 85 78 74 72 73 71 69 71 72 78 82 78 78 84 83 79 70 65 64 66 70 76 79
77 82 80 81 85 84 78 75 79 79 78 75 75 74 80 88 87 86 81 86 84 81 78 86 86 88 77 69 68 68 68 70 72
79 82 83 84 77 73 71 73 76 80 82 86 85 93 92 92 92 93 94 88 77 82 77 86 87 84 84 80 76 73 73 74 73
79 83 84 83 78 73 74 80 86 90 89 85 88 95 90 87 88 86 88 86 72 71 70 69 76 87 95 88 78 74 70 69 68
79 82 84 88 90 90 91 92 91 93 93 92 94 93 97 95 85 80 80 76 76 68 67 70 76 80 87 82 81 77 73 70 69
91 91 92 93 96 95 96 97 97 98 98 96 97 98 96 98 93 89 87 84 74 75 74 77 81 83 87 88 86 84 79 73 71
80 78 76 78 78 78 85 91 94 98 99 98 97 94 95 96 99 91 94 92 94 88 84 82 80 74 86 95 88 81 76 73 71

GFSFLT1_sfc_rhum_075.txt.gz
RH
67 72 74 76 77 75 74 74 73 73 76 75 76 76 79 81 92 92 81 81 63 62 62 63 64 67 70 67 68 64 70 78 76
70 73 75 77 76 76 73 72 73 73 72 69 74 77 79 86 92 90 89 83 67 65 64 63 64 65 65 68 70 70 63 64 73
72 73 74 76 75 74 74 74 74 73 71 70 72 71 77 83 91 91 91 79 71 68 66 64 64 65 66 67 67 68 70 70 66
74 73 74 75 76 75 74 75 76 74 70 69 72 75 75 92 93 84 94 79 69 71 68 66 64 64 66 67 67 68 69 69 70
80 85 83 78 78 78 76 73 70 71 69 68 66 73 73 85 91 94 96 75 68 70 70 66 64 64 66 67 67 68 69 69 69
93 92 87 84 80 78 76 74 73 78 76 71 72 73 75 69 80 74 76 75 67 70 71 66 64 62 64 67 67 67 67 69 70
91 95 92 89 86 84 76 75 76 78 80 83 76 77 75 67 66 68 66 60 56 68 74 71 65 63 62 65 64 63 64 65 67
98 98 98 97 94 96 92 92 94 86 84 79 85 75 73 63 61 62 70 62 54 57 70 77 70 66 65 63 64 61 62 64 67
99 99 98 98 98 96 96 97 93 90 85 85 71 68 61 62 61 63 73 71 57 55 63 74 76 71 68 66 66 64 62 64 66
98 98 98 98 98 98 96 96 94 94 92 86 76 71 66 66 64 66 74 80 71 60 58 72 76 76 75 72 70 70 66 65 66
98 98 97 97 97 97 96 96 96 94 87 83 80 78 75 75 71 72 72 76 79 72 60 61 67 71 73 76 74 73 73 71 68
86 86 87 94 94 94 96 86 86 88 87 90 86 85 85 84 80 76 77 76 84 82 66 64 63 64 66 68 70 76 76 75 74
84 88 84 78 79 80 82 81 86 89 89 90 85 84 84 81 75 71 70 70 67 73 79 77 73 70 66 65 65 67 72 75 78
82 86 86 83 84 80 76 82 85 88 87 82 83 76 74 72 74 77 79 77 77 77 80 85 82 80 71 66 65 64 68 71 75
81 84 83 84 88 88 86 82 87 84 80 76 76 80 87 87 92 90 87 91 90 90 89 86 92 86 75 70 67 68 68 72 72
81 85 86 87 87 85 84 78 77 82 84 87 83 90 91 92 91 95 96 94 91 91 88 89 82 84 82 78 73 71 75 69 69
77 84 88 89 91 83 76 80 87 87 88 89 94 95 89 89 88 90 89 90 84 85 84 84 77 80 88 89 77 72 67 65 66
80 81 86 89 89 88 86 89 89 91 95 93 88 92 96 96 87 83 84 82 82 80 77 77 81 85 91 83 85 80 75 70 69
83 87 91 92 95 95 95 96 96 97 98 97 97 98 98 98 96 91 92 90 78 78 79 79 79 80 92 90 88 84 78 72 69
96 95 96 95 96 96 95 96 97 98 98 98 97 96 97 98 100 96 94 93 95 93 87 89 83 75 89 89 88 83 74 72 70

GFSFLT1_sfc_rhum_078.txt.gz
RH
75 74 76 76 75 76 76 74 75 78 82 76 76 77 79 85 93 92 83 82 64 63 64 65 66 68 69 69 69 63 62 71 76
71 76 78 78 75 76 75 73 74 73 76 76 76 75 80 90 93 93 92 84 66 65 64 64 64 65 67 69 69 70 69 64 66
72 75 77 76 75 74 72 72 72 72 70 72 74 78 80 84 92 92 92 80 71 68 66 65 65 66 67 66 68 69 69 68 67
73 75 76 76 75 75 76 75 74 72 70 71 73 74 83 92 94 86 95 79 70 71 68 66 65 66 67 68 68 68 69 69 68
77 81 81 78 78 78 76 74 74 72 70 68 72 76 78 90 91 94 96 78 68 71 69 67 65 66 68 68 68 68 69 70 69
91 92 87 85 81 78 76 73 73 74 73 72 74 72 76 75 89 82 73 78 65 69 71 66 65 63 66 67 67 66 66 68 70
93 95 90 88 86 84 75 73 76 77 83 85 76 78 77 71 67 71 64 64 56 61 73 72 66 64 63 66 64 63 64 65 68
98 99 98 97 94 96 92 93 94 86 86 81 85 81 75 69 64 60 66 64 56 54 60 76 72 67 65 64 64 61 62 63 67
98 99 98 98 98 96 95 97 92 89 87 87 78 73 66 65 62 63 69 70 60 55 56 68 78 73 70 68 66 64 62 63 65
98 98 99 98 98 98 96 96 94 93 92 91 85 79 77 70 68 68 76 71 71 61 57 65 75 77 76 74 72 71 69 66 66
98 99 98 98 98 97 96 96 96 96 93 86 86 82 80 77 76 73 74 77 76 72 61 59 63 70 72 71 76 76 74 74 71
96 98 98 97 97 95 97 94 93 95 88 91 90 88 88 87 84 84 81 80 82 79 67 62 63 65 65 66 71 74 77 78 76
92 92 88 85 93 94 95 95 87 91 94 92 87 87 87 84 85 78 78 81 76 76 79 76 69 69 66 66 66 66 72 73 78
81 84 86 81 83 81 80 83 86 89 90 89 87 87 82 80 79 86 86 88 87 83 81 85 86 82 73 66 64 64 68 71 73
76 84 88 88 87 87 86 82 90 91 86 80 80 82 89 93 93 93 90 93 92 93 93 94 88 88 78 68 66 66 68 74 74
74 82 88 89 90 86 87 89 83 84 85 89 85 89 87 90 92 95 95 94 94 93 94 95 94 89 81 76 71 70 68 67 68
80 78 83 89 90 89 89 85 87 86 89 88 94 95 86 91 88 90 89 90 89 90 89 90 90 92 92 85 77 69 65 65 66
81 85 94 96 94 92 92 88 89 90 94 93 91 94 95 97 92 87 91 88 88 86 82 77 86 93 88 83 85 82 74 68 66
97 96 96 96 95 96 97 97 96 96 94 97 97 97 97 99 98 91 93 93 83 86 84 86 84 87 94 88 87 84 79 69 66
98 99 99 99 99 98 97 97 98 98 97 98 98 97 98 99 99 98 95 93 96 96 93 94 89 89 95 95 88 83 74 71 68

GFSFLT1_sfc_rhum_081.txt.gz
RH
70 72 78 80 79 76 76 77 82 84 82 76 76 74 81 76 61 62 63 56 64 64 65 66 66 67 68 68 68 67 67 65 65
75 76 77 78 78 77 74 75 76 80 80 76 73 74 80 61 65 66 65 61 66 65 65 65 65 66 66 67 68 68 67 66 65
74 77 77 76 78 76 74 73 73 73 76 76 74 78 78 62 63 68 66 75 70 69 67 66 66 67 66 67 68 68 67 67 66
75 77 76 76 76 75 75 74 72 71 70 70 71 80 81 54 59 61 63 79 69 69 68 66 66 67 67 67 67 67 68 68 67
80 83 82 78 77 78 78 77 74 72 70 68 72 79 81 56 61 59 59 79 68 70 68 67 65 66 68 68 68 67 68 68 68
69 86 86 86 83 79 76 74 72 75 76 75 74 72 46 45 53 50 66 74 64 69 71 66 64 63 66 66 66 66 66 67 68
73 84 90 88 86 84 76 75 75 69 51 52 63 46 46 42 44 45 62 61 57 57 72 72 66 64 63 66 63 62 63 65 67
76 78 76 76 84 69 71 70 59 56 53 53 48 50 46 41 40 47 62 63 58 54 59 77 74 68 66 64 64 61 61 62 66
82 81 81 78 76 72 68 63 61 59 56 54 50 47 44 40 42 46 67 64 63 58 56 64 76 75 70 69 67 66 62 63 64
79 76 78 78 76 71 66 63 60 60 60 59 58 54 51 49 47 47 75 71 68 64 59 58 70 77 76 75 73 72 71 68 67
77 79 79 79 76 72 67 60 65 64 64 60 60 58 56 53 54 53 55 77 76 73 65 60 61 65 71 73 74 77 75 74 72
75 76 78 75 72 70 71 68 70 68 68 62 59 62 58 61 60 58 61 64 85 80 73 66 63 64 65 67 68 71 79 78 77
74 73 76 73 71 70 71 70 69 64 63 61 60 60 61 58 58 59 59 62 60 72 79 78 72 69 67 66 68 66 71 75 74
70 69 70 67 67 70 68 69 65 62 64 64 61 62 63 60 57 57 60 61 64 61 78 86 85 83 75 67 66 65 66 72 72
67 66 66 65 66 64 65 62 64 63 64 66 64 64 64 62 59 57 62 62 66 65 68 68 68 88 82 74 65 65 70 73 73
65 64 69 73 71 64 63 66 67 69 76 84 65 63 60 59 60 61 60 61 63 68 68 65 64 63 82 76 69 68 68 68 68
79 78 78 78 73 72 72 73 77 82 84 77 85 70 58 58 59 59 60 60 61 63 65 65 65 68 67 78 79 69 64 64 66
92 90 87 90 90 88 81 82 85 89 91 85 81 78 72 74 62 65 63 62 59 58 61 63 68 71 74 77 80 81 73 65 64
98 94 91 91 97 98 96 92 89 88 80 86 84 81 82 76 75 66 67 66 63 61 60 62 67 72 72 81 84 85 79 66 63
98 97 98 97 99 99 98 89 94 93 91 87 87 85 85 87 89 73 70 67 68 70 67 62 64 70 71 71 79 84 74 68 66

GFSFLT1_sfc_rhum_084.txt.gz
RH
70 76 79 83 82 72 78 80 82 84 78 75 70 75 72 70 43 46 52 50 64 65 65 65 65 66 68 68 68 69 67 67 66
72 77 80 80 78 77 78 81 80 79 77 72 70 75 73 42 46 48 50 57 66 65 66 66 66 66 67 67 68 67 67 66 66
71 74 79 77 75 75 75 75 79 79 77 73 72 75 74 46 46 50 50 71 68 67 66 66 67 66 66 67 67 67 67 66 67
71 74 77 79 74 75 75 74 73 73 75 73 75 80 74 36 40 41 44 79 68 67 67 66 66 67 67 67 67 67 67 67 67
79 74 75 80 79 78 77 74 73 72 70 68 73 81 78 36 41 39 45 78 67 68 67 66 65 66 68 68 67 66 67 68 68
64 77 80 85 82 79 78 76 75 76 76 73 71 73 32 33 34 33 66 71 65 70 69 66 64 64 66 66 65 65 66 66 67
49 74 90 88 86 84 76 74 74 71 37 43 66 33 33 30 32 31 57 59 60 58 72 72 67 64 64 65 62 61 62 64 65
57 59 63 59 79 51 60 58 41 37 34 36 32 34 33 29 30 38 59 62 59 56 61 74 75 69 67 66 64 61 61 62 63
51 50 50 50 47 45 43 38 38 38 38 35 33 33 34 32 33 40 65 64 62 60 58 62 76 78 72 70 69 67 64 64 65
51 50 50 47 46 44 43 40 36 36 38 41 40 40 39 38 39 40 71 69 68 66 62 60 64 76 77 75 75 74 73 70 70
53 51 51 47 46 42 39 38 40 40 43 43 43 44 45 43 44 42 45 76 75 74 71 65 62 64 72 75 76 77 76 76 74
54 49 52 52 51 45 45 40 46 50 48 45 43 45 44 44 44 44 44 48 86 82 75 73 68 65 65 67 71 75 75 79 78
57 53 53 51 50 50 50 49 52 49 46 43 45 46 46 45 43 42 42 43 44 69 82 79 75 71 68 69 71 67 73 76 77
57 52 51 52 51 52 51 52 49 48 46 47 46 47 47 45 42 40 42 45 49 46 68 85 85 83 78 73 69 68 69 74 74
62 53 50 53 54 52 52 50 48 46 45 49 49 47 45 44 43 41 41 43 48 46 50 52 56 88 82 79 72 66 69 74 73
58 52 51 54 54 53 50 49 51 52 53 62 66 47 45 44 42 42 41 43 44 49 51 53 51 52 80 77 70 67 74 70 68
66 63 58 56 61 57 55 55 57 55 59 65 62 55 47 43 43 42 44 45 45 48 50 52 53 56 54 71 81 72 66 65 66
80 78 86 86 85 78 69 62 62 74 77 77 59 59 54 50 42 49 47 46 46 47 50 51 55 57 59 66 72 80 73 65 65
95 95 96 98 97 96 97 96 94 82 75 82 69 59 55 58 52 48 49 48 43 47 47 49 53 56 58 75 83 83 79 66 63
98 98 99 99 98 99 99 97 99 99 97 88 88 69 70 74 75 50 47 49 46 48 49 50 50 55 57 58 75 83 72 67 66

GFSFLT1_sfc_rhum_087.txt.gz
RH
72 76 78 78 73 76 76 78 79 80 76 69 71 68 65 73 44 47 55 57 65 65 66 66 67 66 66 67 67 67 68 67 68
73 79 80 78 78 78 80 82 81 78 73 68 70 69 69 42 46 48 55 63 66 66 67 67 66 67 67 66 66 67 67 68 68
76 78 80 79 78 78 81 79 79 78 73 70 70 70 72 44 46 49 57 72 68 67 67 67 67 67 67 66 67 67 67 68 68
70 79 81 78 74 77 77 79 80 78 72 72 73 72 73 41 41 41 54 76 67 68 67 67 67 67 68 68 67 67 67 68 67
82 80 86 81 78 79 78 74 73 73 71 70 76 79 76 36 41 40 60 72 66 67 67 66 66 67 67 68 67 66 67 68 68
66 74 87 85 84 80 77 75 75 79 77 74 75 79 38 34 34 37 75 75 66 69 68 66 64 65 66 66 65 65 65 66 65
49 74 88 87 86 84 79 77 76 74 43 51 67 42 32 31 35 38 65 58 64 61 73 71 67 64 65 64 62 61 61 63 63
56 65 69 72 86 64 68 67 49 40 34 35 32 32 32 30 33 49 65 59 58 58 62 71 74 70 68 67 64 61 61 62 62
53 56 59 54 54 46 48 44 38 36 34 32 32 31 32 32 34 47 66 63 60 60 60 62 74 77 73 71 70 68 65 65 65
51 47 46 46 43 41 43 39 36 35 34 34 34 33 34 35 38 41 74 71 67 64 63 62 62 70 78 75 75 74 74 71 71
53 47 49 45 42 41 41 38 36 34 34 38 39 39 41 40 41 45 55 77 76 73 70 69 66 64 67 76 79 80 78 77 75
45 45 47 47 45 41 39 35 35 39 38 42 40 40 40 43 43 44 46 61 85 81 76 74 72 69 66 67 70 76 77 78 78
50 49 51 49 49 49 44 43 43 47 47 44 41 43 44 42 41 42 43 46 43 77 83 79 75 74 72 69 69 70 78 79 77
56 57 56 50 58 48 48 48 46 49 48 46 42 45 46 44 41 40 41 42 48 50 77 86 84 83 78 74 73 73 72 76 74
65 57 52 51 61 50 50 49 49 48 46 41 45 50 50 47 44 40 38 42 46 47 51 58 61 87 82 80 77 70 70 74 74
65 62 52 56 61 55 52 50 52 53 49 55 56 54 47 44 43 41 43 42 44 46 52 56 57 68 79 78 73 68 72 73 71
67 67 59 62 64 60 61 57 57 56 56 68 63 70 61 47 45 44 44 43 45 48 50 51 54 61 66 82 81 74 69 69 68
76 75 80 84 85 83 82 81 62 71 72 70 70 66 63 53 48 49 48 46 46 47 52 51 55 59 67 73 76 78 76 64 66
87 92 85 89 91 95 95 95 94 84 84 84 78 70 68 62 58 56 51 50 43 45 51 53 55 58 65 83 82 82 81 65 64
92 94 96 96 97 98 98 99 99 100 99 98 97 93 92 85 78 63 55 56 50 52 52 51 54 58 63 66 82 82 73 65 63

GFSFLT1_sfc_rhum_090.txt.gz
RH
75 77 76 76 76 79 78 79 80 76 72 69 67 63 68 74 61 70 73 75 66 67 68 67 67 66 67 67 68 67 68 68 70
77 77 68 66 77 77 77 79 80 75 69 67 65 66 73 68 67 74 79 76 66 67 67 67 67 68 67 67 67 67 68 68 67
76 73 63 66 76 80 81 81 79 74 69 67 66 71 73 57 66 76 85 77 68 67 68 68 68 68 67 67 67 68 67 67 67
68 66 74 79 80 83 83 80 79 74 71 70 70 72 73 75 61 67 84 77 68 68 68 68 68 68 69 68 68 68 68 68 67
67 79 77 76 82 83 84 82 81 78 75 76 78 76 76 66 54 78 88 72 67 67 68 67 67 68 68 68 67 68 68 68 69
65 80 83 83 85 84 80 77 79 80 78 76 78 79 71 59 56 75 84 75 68 68 67 66 65 66 67 67 65 65 66 65 65
68 86 90 86 87 86 81 80 82 78 74 78 76 72 63 49 54 69 75 69 65 67 73 70 67 64 66 65 62 61 62 63 62
82 93 86 91 93 93 89 88 82 73 66 67 65 61 52 52 51 65 69 60 61 59 64 73 76 71 67 68 65 62 62 62 62
80 82 90 92 92 87 87 85 72 63 54 52 50 48 48 48 54 69 72 68 59 60 61 62 72 78 75 71 71 70 66 66 65
74 75 78 75 72 70 69 66 58 54 50 45 47 46 46 49 57 60 78 72 70 63 62 63 63 65 76 77 75 75 75 71 70
74 66 65 68 62 63 60 56 57 52 50 47 51 53 55 59 59 66 72 80 76 74 68 67 67 66 65 69 78 80 78 77 77
69 66 67 64 62 56 56 54 51 52 50 54 56 56 57 59 57 60 70 76 85 82 74 73 72 71 69 67 69 74 78 78 78
63 66 66 64 65 66 64 60 58 64 64 67 62 60 61 60 59 54 62 70 62 85 83 81 76 73 72 71 69 70 78 79 79
65 69 71 69 73 69 64 63 61 66 68 67 62 64 64 61 53 57 55 56 63 69 85 88 85 83 76 73 71 72 76 78 77
73 75 73 71 75 69 67 66 68 66 69 53 52 65 68 65 66 58 49 53 58 61 65 83 83 88 82 77 75 72 71 73 74
81 77 70 69 74 70 64 65 66 70 69 72 71 72 63 61 63 62 60 56 58 60 69 75 77 88 84 80 75 70 70 73 74
84 84 77 69 77 76 69 70 74 71 69 79 83 88 80 71 60 60 58 60 60 62 64 66 72 84 94 89 83 74 74 71 70
81 82 86 87 92 90 90 92 93 84 84 82 88 91 87 80 63 68 64 62 63 66 66 67 69 75 88 87 84 78 76 65 67
88 88 90 93 97 97 97 98 98 98 98 96 93 94 92 77 80 76 67 65 58 63 69 68 71 73 85 86 82 80 79 66 64
92 94 95 97 98 98 98 99 99 99 99 99 100 98 96 94 87 81 72 70 65 63 66 70 75 73 80 92 90 84 76 65 63

GFSFLT1_sfc_rhum_093.txt.gz
RH
77 78 83 82 79 76 74 75 77 75 74 69 64 65 71 74 79 84 78 79 68 68 68 68 67 67 66 66 67 68 68 68 68
79 80 81 78 79 79 77 79 77 72 70 66 66 68 75 72 85 86 85 77 67 67 68 69 68 67 68 68 68 68 67 67 67
78 78 71 64 68 77 78 80 75 70 68 66 67 70 75 72 84 88 90 77 67 68 68 69 69 68 68 68 68 68 67 67 68
74 71 63 73 80 84 85 80 76 71 68 67 69 70 73 74 84 77 90 77 68 68 68 69 69 70 70 68 68 69 68 68 68
64 76 73 67 87 88 87 83 78 75 74 74 75 76 75 69 81 86 90 72 67 68 68 68 68 69 69 68 68 68 68 67 69
67 79 80 83 87 87 86 85 86 84 80 77 76 80 72 73 82 92 83 72 67 68 68 67 66 67 67 67 66 66 67 64 64
61 82 83 85 88 87 82 82 84 81 82 79 75 72 68 65 74 86 84 74 69 72 71 69 67 66 67 65 63 63 63 62 62
78 89 79 80 94 97 93 94 92 87 79 74 74 66 65 61 65 72 77 69 66 63 71 76 74 70 68 69 66 63 63 63 63
86 89 89 82 98 97 97 98 89 80 71 70 69 63 60 56 61 73 75 71 61 63 63 66 72 77 76 72 72 72 68 67 67
81 84 91 96 97 94 97 92 81 74 66 56 58 54 53 50 60 67 82 74 72 64 64 64 65 68 74 79 76 76 76 73 72
79 80 86 89 84 84 80 79 74 67 57 53 52 54 53 52 64 60 72 81 76 75 67 66 67 67 67 68 75 81 79 78 77
76 79 82 79 72 71 70 66 62 61 56 57 55 58 59 64 65 68 67 77 86 82 73 72 71 71 70 69 69 78 81 80 79
76 74 72 69 67 66 66 65 63 65 65 66 64 64 63 65 65 64 67 70 64 85 84 82 78 75 72 69 69 73 80 82 82
69 71 71 66 70 71 69 70 64 66 72 70 66 67 66 68 60 66 63 72 74 79 84 90 86 83 77 72 70 71 77 82 81
65 72 69 72 79 77 74 66 71 67 68 60 59 66 69 73 69 66 58 59 63 72 78 88 87 89 84 77 75 73 73 77 75
74 79 75 77 74 69 68 71 72 78 72 73 72 72 70 73 66 69 63 58 61 70 77 81 87 91 83 81 76 71 71 74 75
80 82 78 74 81 73 70 73 77 75 76 77 85 87 79 75 70 64 57 65 65 71 70 75 85 95 95 90 83 76 71 74 72
79 90 90 89 89 90 89 88 84 85 86 82 87 94 93 84 75 67 66 66 67 76 74 76 77 89 94 90 87 80 78 72 71
93 94 94 92 94 96 96 98 98 96 97 96 96 94 94 90 85 80 75 71 63 70 76 80 78 84 88 88 83 82 80 68 67
88 88 96 97 98 96 96 99 99 99 99 98 99 99 99 98 98 87 78 68 67 74 72 77 80 84 95 96 92 86 76 67 66

GFSFLT1_sfc_rhum_096.txt.gz
RH
77 81 84 83 82 79 76 71 78 80 76 66 67 71 76 81 89 91 81 82 68 68 68 68 68 67 67 69 69 68 67 68 68
80 85 85 82 81 77 75 77 77 75 72 67 69 72 80 84 90 91 87 81 68 68 69 69 68 69 69 69 68 67 67 68 68
81 84 83 82 80 76 77 76 73 71 69 70 70 76 81 81 90 93 92 77 67 68 70 70 70 69 68 68 69 68 67 68 68
80 81 78 70 69 82 82 77 70 70 69 69 70 77 82 93 91 84 93 78 68 69 70 70 70 70 69 69 69 68 68 68 69
79 79 72 74 81 84 86 79 72 72 73 71 69 74 79 91 88 90 93 73 68 69 69 70 69 70 69 69 69 68 67 68 68
71 79 80 76 86 89 87 82 81 84 80 75 72 74 76 86 92 94 85 72 68 68 69 68 68 69 68 67 67 68 66 64 64
64 80 83 80 87 89 88 87 88 84 87 83 76 75 71 71 90 95 85 71 69 69 70 69 68 68 68 66 64 64 65 62 61
81 78 73 83 91 97 94 95 95 88 83 78 77 70 68 68 77 77 86 74 68 72 75 74 72 71 69 70 67 64 64 64 62
84 83 80 80 91 98 98 98 95 90 82 78 74 67 66 64 68 74 84 79 67 65 67 74 78 78 76 74 73 72 69 68 68
94 93 89 79 90 95 99 98 95 89 79 73 71 68 62 58 63 69 86 78 75 69 66 67 68 74 78 80 78 77 76 74 73
94 93 90 91 89 92 98 97 93 82 75 69 62 61 56 55 62 62 73 84 76 76 68 67 68 68 68 69 75 80 80 79 77
92 84 84 83 84 88 92 91 84 78 68 63 59 59 62 64 64 59 64 74 86 81 73 72 70 70 69 69 70 78 82 80 81
86 86 81 79 81 82 84 82 78 72 69 65 64 66 65 66 68 67 62 68 66 83 84 82 78 76 72 69 67 72 80 83 84
80 84 82 77 81 77 72 75 69 72 73 71 70 73 70 68 63 68 71 70 75 80 83 90 88 86 78 72 71 70 76 84 83
74 75 73 71 74 73 71 70 73 69 70 66 67 72 70 70 73 69 63 72 78 81 82 90 92 88 83 76 74 74 74 79 78
76 70 69 71 67 66 65 72 71 76 72 78 78 76 69 73 75 69 70 67 73 78 83 90 94 93 84 82 79 76 72 76 75
76 74 67 69 71 74 72 71 82 77 82 83 86 84 78 80 74 78 66 63 66 76 77 84 92 95 96 90 82 82 71 74 78
77 78 78 83 82 83 84 82 82 83 88 83 87 96 90 86 80 78 74 69 70 80 77 82 91 93 94 90 87 81 80 74 73
87 86 85 83 84 89 86 84 83 90 93 98 97 93 90 90 87 83 79 72 67 81 84 83 88 92 93 90 84 83 81 71 72
89 93 97 98 99 96 96 98 97 95 93 96 99 99 99 96 96 96 87 79 72 76 79 80 81 89 94 95 90 85 75 70 66

GFSFLT1_sfc_rhum_099.txt.gz
RH
76 83 86 85 83 79 76 77 79 80 76 70 69 70 75 81 92 93 84 85 67 68 69 69 68 69 70 69 68 68 68 68 67
80 86 86 84 83 79 74 76 81 78 75 71 72 76 82 90 93 92 91 84 68 69 68 69 69 69 69 69 68 68 68 68 67
81 84 85 83 78 76 76 79 76 74 71 72 75 81 83 84 93 92 92 78 68 69 70 70 70 69 69 69 68 68 68 68 68
81 86 84 82 79 79 78 76 72 71 72 71 76 85 88 93 96 88 95 79 69 70 70 71 71 69 69 69 69 68 68 68 68
82 87 84 82 82 85 83 76 71 73 77 74 76 83 89 93 93 94 96 74 68 69 70 70 70 70 69 70 69 68 67 68 68
84 83 85 81 80 84 84 78 79 81 78 74 77 79 86 92 95 97 86 73 68 68 69 69 69 69 69 69 69 68 66 64 64
71 79 84 82 83 91 87 83 86 86 93 87 77 79 79 90 96 97 87 72 68 68 69 69 68 69 68 66 65 65 64 62 62
75 74 73 78 93 94 94 96 97 92 87 83 82 76 74 76 86 84 88 74 69 69 71 72 71 70 70 69 67 65 65 64 62
92 79 77 80 95 95 98 99 97 92 84 81 77 74 72 74 75 83 86 85 70 70 73 76 77 75 75 72 73 72 70 68 69
96 93 92 81 94 92 98 98 97 94 89 83 80 76 71 70 67 76 84 86 82 72 67 69 73 75 77 78 78 78 78 74 73
96 98 96 90 85 94 94 95 95 96 89 80 77 73 70 65 62 68 72 85 81 79 70 69 69 70 70 72 74 80 82 80 78
93 97 99 97 92 93 94 95 91 92 83 80 72 66 65 63 60 65 65 73 86 81 73 72 70 70 69 69 71 78 80 81 84
93 93 95 96 96 90 93 95 90 91 86 79 72 65 66 66 67 67 61 65 64 81 82 80 78 75 72 71 68 70 79 83 83
85 88 86 83 91 90 86 89 86 84 81 75 71 70 73 71 65 73 70 65 69 77 83 88 87 86 80 73 70 71 75 83 83
88 77 80 84 83 85 85 82 80 78 73 63 66 78 75 75 76 71 67 75 75 79 79 88 93 93 83 78 74 72 74 78 81
83 83 84 84 82 78 77 75 75 75 72 79 80 81 75 75 75 74 75 73 76 84 83 87 92 94 84 82 77 77 73 73 80
86 86 84 84 83 75 72 74 77 70 79 78 89 86 81 79 74 79 78 76 76 81 83 89 93 96 96 91 82 80 75 74 76
89 87 87 84 82 80 80 78 72 74 88 85 87 96 90 87 83 84 85 74 77 80 81 85 94 96 96 91 88 84 80 76 77
92 89 87 86 85 84 85 85 81 84 86 96 96 93 88 89 89 87 83 76 73 82 82 88 92 93 95 90 88 81 82 73 75
96 98 96 93 92 88 92 92 88 89 91 89 99 98 98 96 94 96 94 89 83 85 83 85 87 85 88 88 86 80 75 71 69

GFSFLT1_sfc_rhum_102.txt.gz
RH
75 81 87 87 86 80 80 79 78 78 75 70 69 71 76 83 92 93 84 85 67 68 69 69 69 70 69 68 68 68 67 67 67
80 86 88 85 82 80 77 78 79 74 77 70 71 75 82 93 94 93 91 86 68 69 69 69 69 69 68 68 68 68 68 68 68
81 86 88 85 81 79 76 78 78 73 74 73 76 82 84 86 93 93 92 79 69 70 70 70 69 69 69 68 68 68 68 68 68
81 86 86 83 82 81 80 80 76 73 74 74 84 86 86 94 96 88 95 79 68 70 71 71 69 68 69 69 68 68 68 68 68
85 88 87 84 84 84 84 78 74 76 78 76 86 88 89 93 94 96 96 75 68 70 71 70 70 69 69 70 69 67 67 68 68
88 89 90 87 86 86 82 78 79 83 82 78 81 88 97 94 97 97 86 74 68 69 70 70 69 69 70 69 69 67 65 65 65
82 90 92 87 86 89 84 80 84 86 91 88 82 84 92 93 96 97 84 75 68 69 70 70 70 70 70 68 66 66 64 62 63
90 88 83 84 90 96 92 95 97 94 92 87 88 80 81 86 98 90 85 79 68 68 70 71 71 71 71 69 67 66 66 64 63
96 81 86 86 94 98 98 99 97 94 90 85 80 78 76 77 77 91 87 85 72 70 71 72 74 74 74 73 73 72 70 69 69
97 95 93 89 98 99 99 99 98 96 92 86 80 77 74 74 74 81 84 87 85 74 70 73 76 77 78 77 77 78 78 76 73
98 98 95 94 95 98 96 95 97 94 95 90 87 84 81 74 71 70 77 81 86 83 72 69 70 72 72 74 77 80 82 81 80
97 98 99 98 96 94 96 94 96 96 91 92 84 79 78 75 68 65 69 71 88 82 72 72 71 71 70 69 71 77 81 82 82
97 98 98 98 98 97 98 94 96 98 93 88 82 77 71 69 67 64 67 67 64 79 82 80 79 76 72 71 71 71 78 82 83
96 97 97 97 97 97 98 98 91 96 92 91 84 79 74 71 63 74 72 67 66 70 79 86 86 85 80 75 72 69 75 82 84
96 98 98 97 92 93 94 95 93 91 84 72 70 78 74 76 78 73 69 74 67 70 76 84 87 90 86 78 74 73 74 77 81
95 94 95 95 87 78 86 89 91 93 82 85 83 80 83 81 74 74 76 76 76 80 83 85 90 91 87 84 78 76 74 74 76
91 91 95 89 91 85 85 83 85 83 82 83 85 85 78 80 71 75 74 76 77 82 87 89 92 94 96 93 85 78 75 74 77
88 89 91 95 93 84 90 89 85 82 84 74 86 94 93 89 87 81 78 80 81 82 85 89 93 95 96 93 89 82 81 76 74
95 92 92 92 94 94 92 87 86 81 87 95 91 93 89 91 91 88 86 83 78 82 88 87 95 96 97 94 92 83 81 75 75
92 94 94 94 94 91 91 92 91 88 83 89 97 97 97 95 93 94 92 89 87 91 92 92 93 95 94 90 88 84 80 74 73

GFSFLT1_sfc_rhum_105.txt.gz
RH
77 80 83 85 86 85 80 81 80 81 79 72 71 72 79 81 63 60 63 58 65 67 68 69 69 68 68 67 68 68 67 68 67
79 83 86 86 86 84 80 78 77 75 76 71 71 74 82 62 64 63 64 62 68 68 69 69 69 68 68 68 68 68 68 67 67
80 86 88 86 83 81 79 78 75 75 74 73 75 81 82 66 64 67 65 73 68 68 69 69 69 68 68 68 68 69 68 68 68
81 85 87 85 83 82 83 79 76 75 75 80 83 85 86 58 61 64 63 79 68 69 70 69 68 68 69 68 69 68 68 68 68
85 88 87 85 85 83 85 82 78 79 79 83 88 86 88 57 65 63 61 76 68 70 71 70 69 68 69 69 68 68 68 68 68
72 78 88 86 86 86 86 83 81 84 83 84 88 90 61 58 59 61 82 77 68 70 70 70 70 69 70 69 68 67 66 65 65
70 80 92 90 90 89 86 83 83 84 61 57 80 62 63 61 61 61 84 80 69 69 71 71 70 70 69 68 67 66 64 63 64
72 70 73 69 86 83 75 77 67 75 62 59 54 55 62 60 62 68 84 81 70 68 70 71 71 71 71 69 67 66 66 65 64
84 72 74 69 72 85 72 70 70 77 61 56 54 52 52 52 55 66 88 83 75 68 69 72 73 72 72 72 72 71 70 69 69
87 88 87 78 77 74 78 80 78 65 60 56 53 51 49 47 48 49 83 87 84 76 71 72 74 75 75 75 76 77 77 75 73
87 86 89 88 93 86 86 76 76 73 63 59 54 51 49 46 46 47 50 84 85 82 79 71 71 74 74 75 77 81 82 81 81
85 89 86 82 84 91 96 85 87 75 69 66 58 55 52 54 51 48 49 52 83 86 74 74 71 71 71 70 72 78 80 82 83
82 82 83 82 82 84 87 97 94 89 74 70 67 58 55 53 51 50 49 50 47 69 83 79 77 76 72 71 71 74 78 81 84
80 83 83 82 84 84 85 93 94 96 94 79 73 62 57 51 49 49 50 50 51 50 67 85 83 84 81 73 71 71 75 81 84
82 85 85 87 89 91 90 92 98 97 94 84 73 66 60 55 54 52 48 50 54 52 56 57 64 86 83 78 74 72 71 77 80
82 89 88 91 88 83 82 87 90 96 93 93 88 82 70 62 57 54 53 53 54 56 56 58 57 64 87 83 81 75 72 74 76
83 87 90 88 88 80 74 76 76 89 93 92 90 81 61 67 62 58 59 56 56 60 63 62 63 63 64 73 86 80 75 72 73
86 81 84 86 90 86 85 82 75 74 85 85 85 90 70 63 62 60 58 57 61 65 65 71 68 69 70 81 82 88 85 75 71
87 87 84 84 88 89 91 89 89 87 86 95 88 80 84 70 65 76 77 68 63 63 68 65 73 74 74 79 84 88 87 79 71
86 88 87 88 88 88 89 96 95 91 90 88 84 86 81 82 82 76 80 78 72 70 72 82 80 79 80 76 86 90 85 78 74

GFSFLT1_sfc_rhum_108.txt.gz
RH
76 80 81 83 84 84 78 77 77 80 77 75 72 74 78 79 40 41 51 42 65 66 68 70 69 68 68 68 68 67 67 66 67
80 81 84 84 85 83 79 77 77 78 78 72 71 74 81 42 42 43 46 52 67 68 69 69 68 67 67 68 68 67 67 67 67
81 82 86 84 84 85 80 78 77 75 74 74 74 79 82 50 42 46 47 70 67 67 68 68 68 68 67 68 68 67 67 67 67
82 85 88 86 86 85 83 80 75 76 74 78 81 84 80 38 40 43 46 78 68 69 70 68 68 68 68 67 68 68 67 67 66
86 87 90 86 86 87 85 83 78 79 81 84 87 86 84 37 45 43 45 74 68 70 70 69 68 68 68 68 67 67 66 66 66
61 73 86 87 85 85 87 85 83 85 85 86 88 88 44 38 38 39 80 79 69 69 71 70 69 68 69 69 67 65 65 65 65
53 69 90 88 87 89 88 86 86 85 47 52 84 53 42 41 42 39 80 80 69 70 71 72 71 70 70 69 68 65 64 63 63
56 55 64 76 86 67 71 71 60 58 42 41 43 45 43 40 40 51 81 80 72 69 71 72 72 72 71 70 68 67 66 64 64
54 51 62 69 72 70 62 55 54 47 46 41 40 39 41 40 39 45 84 82 77 70 70 72 73 73 73 72 71 71 70 69 69
59 62 66 65 72 74 74 60 51 46 47 41 39 39 38 37 36 37 89 88 81 77 71 71 72 74 74 75 75 76 76 75 74
69 67 69 62 71 70 73 79 75 62 38 35 36 38 37 36 36 36 39 82 84 81 78 76 73 74 75 76 77 79 80 81 80
64 68 64 66 67 85 86 81 87 66 55 42 35 34 32 32 34 36 37 43 85 84 76 73 76 72 72 72 74 79 82 83 82
64 57 62 62 61 65 67 74 89 86 90 66 52 55 39 36 35 35 36 39 39 66 81 80 77 76 73 71 70 76 80 83 84
58 56 56 55 68 72 76 77 79 86 90 93 82 62 50 39 36 36 38 40 41 40 63 85 84 82 81 74 72 72 79 82 83
61 58 58 62 76 75 78 79 83 82 80 92 85 67 58 48 41 36 34 37 40 41 42 44 53 85 79 76 74 73 75 80 81
68 65 66 78 84 78 83 86 86 92 83 97 93 87 76 67 60 46 40 41 42 39 41 42 43 47 81 80 80 75 73 74 78
67 68 68 72 89 83 81 80 82 78 74 78 68 72 62 70 61 56 56 50 51 48 44 44 47 50 49 64 82 80 74 73 72
69 68 69 75 79 88 81 71 72 67 65 75 69 83 70 50 52 65 57 48 50 48 49 49 49 51 52 63 72 89 85 78 72
73 78 72 72 77 79 78 76 72 76 73 80 82 71 71 77 58 41 45 39 39 43 47 49 51 54 58 74 83 90 90 82 75
69 72 76 79 77 77 77 80 81 83 86 84 88 88 84 77 85 84 81 68 56 52 50 51 62 66 73 80 84 95 94 82 74

GFSFLT1_sfc_rhum_111.txt.gz
RH
75 78 80 82 82 83 81 79 77 80 77 76 76 75 75 79 39 41 47 48 66 66 68 68 69 68 68 68 68 68 67 67 68
78 82 84 84 82 84 80 77 77 77 77 73 70 73 79 54 39 40 45 59 67 68 68 68 68 68 68 68 67 67 67 67 67
80 82 85 84 81 83 81 78 77 77 76 73 74 78 82 49 39 42 47 73 67 68 68 68 67 67 67 68 68 67 67 67 66
83 84 85 85 85 85 84 83 80 77 76 79 82 84 80 56 38 40 48 78 67 69 70 68 67 67 67 67 68 67 67 67 66
85 86 87 88 88 87 86 85 80 80 81 84 87 85 81 50 41 42 58 75 67 69 70 69 68 68 68 68 67 66 66 66 66
61 72 83 88 88 87 84 85 83 86 86 89 89 86 51 39 38 40 81 74 68 69 70 70 68 68 69 68 67 65 65 66 65
48 63 85 90 90 87 86 86 87 86 54 62 87 60 46 38 38 40 82 78 70 69 71 71 70 69 69 69 68 66 64 64 64
49 49 63 73 86 80 75 75 67 58 45 44 49 52 45 39 41 56 83 77 73 69 71 72 72 71 71 70 68 67 66 65 65
54 51 53 70 70 77 80 80 61 54 48 37 37 39 41 40 40 52 83 81 76 71 71 72 73 73 72 72 71 70 70 70 69
60 53 58 64 70 73 80 78 76 52 46 43 38 36 36 36 37 38 87 84 80 76 72 71 73 74 74 74 74 75 75 74 74
83 75 75 76 77 75 72 66 72 68 52 44 40 35 35 35 35 36 55 88 86 80 76 75 70 72 73 74 76 78 78 79 79
72 75 76 73 75 74 75 75 80 85 84 68 44 36 33 35 35 36 38 55 86 85 77 73 74 76 74 74 75 80 84 84 84
80 79 71 72 74 71 70 74 94 91 96 95 78 52 42 34 31 33 35 39 39 75 81 81 75 74 75 72 71 76 80 84 85
84 89 80 71 72 68 72 79 80 83 85 82 67 54 50 49 41 37 37 39 43 44 73 83 83 83 80 74 72 72 76 81 84
76 91 91 81 74 68 79 78 80 83 82 87 85 76 65 60 54 45 37 36 41 44 48 61 67 85 81 76 72 72 77 80 85
69 74 71 74 71 70 69 77 84 90 86 92 92 85 76 68 63 62 49 43 38 41 44 46 47 55 82 79 77 73 72 77 82
69 69 77 70 82 75 74 84 85 84 91 93 91 90 81 79 65 64 60 56 48 50 47 46 47 52 57 72 79 77 71 71 75
72 67 74 79 80 83 83 86 89 92 79 84 79 84 76 58 53 61 57 57 55 53 50 50 49 51 55 68 77 85 80 77 72
79 75 73 76 81 87 85 82 86 84 87 82 76 71 73 66 66 49 53 50 48 46 48 48 49 51 56 67 73 82 88 81 74
81 82 78 81 84 84 84 86 86 86 87 84 80 82 79 81 87 78 62 65 57 53 43 44 50 53 60 67 75 87 90 84 78

GFSFLT1_sfc_rhum_114.txt.gz
RH
76 79 81 82 83 81 82 82 80 82 82 74 74 77 75 78 71 60 69 73 67 69 70 69 68 68 68 68 68 68 68 68 66
81 83 84 84 85 82 82 79 78 80 80 76 77 76 79 75 73 54 72 75 68 68 69 69 68 68 68 68 68 68 67 67 67
81 83 85 86 84 80 82 80 78 79 78 74 74 80 80 61 61 59 82 77 67 68 69 69 68 68 69 68 68 68 68 67 66
81 85 85 85 85 81 85 83 81 78 79 81 84 83 80 83 69 52 81 79 67 68 69 69 69 68 68 69 69 68 68 66 66
87 87 86 85 86 87 87 85 84 84 83 84 87 85 80 86 69 58 79 77 68 69 70 68 68 68 68 68 68 67 68 67 66
81 84 84 88 88 88 87 86 86 86 86 88 88 86 83 68 62 65 84 74 68 70 71 71 68 68 69 68 67 66 67 66 66
62 76 85 90 89 90 86 86 86 90 90 97 92 95 81 66 56 77 85 74 68 70 72 73 71 70 71 70 68 66 66 65 65
68 78 85 96 94 96 89 88 84 91 80 76 93 89 77 64 60 78 85 75 68 69 72 73 74 73 72 71 70 69 68 67 67
68 70 80 90 92 96 96 95 85 79 69 65 70 72 68 64 62 83 85 81 71 70 71 73 74 74 73 73 72 71 72 70 70
73 73 74 92 94 95 97 96 90 84 67 58 54 55 60 59 58 80 88 85 81 74 72 73 74 74 74 74 74 75 75 74 74
89 88 88 89 92 95 96 95 93 94 86 62 56 50 48 53 52 62 84 87 84 82 74 74 74 74 73 74 76 77 77 78 78
87 89 92 92 93 93 96 95 94 96 89 83 72 59 48 50 48 51 68 82 89 85 75 73 73 75 74 74 74 80 83 83 83
88 89 92 89 94 95 95 96 98 98 98 94 92 82 62 45 40 43 45 63 60 84 83 80 77 75 74 74 73 78 82 84 85
91 92 95 94 96 89 90 94 96 99 99 97 94 82 61 56 47 53 49 50 56 61 78 84 83 83 80 71 71 72 78 82 83
96 96 93 91 91 92 92 92 93 95 95 94 95 94 76 70 66 55 45 47 45 54 57 74 76 86 82 78 71 71 78 80 82
92 96 84 85 89 84 87 89 93 94 95 97 97 94 88 91 90 72 59 51 43 45 47 55 71 65 84 80 78 76 73 79 82
83 86 87 91 93 91 85 87 95 93 94 97 97 97 92 91 84 77 70 65 66 62 55 53 54 55 68 76 80 76 73 70 77
84 88 90 93 94 97 94 94 95 96 95 96 90 98 91 82 87 81 73 68 66 62 56 56 58 54 60 75 77 83 79 75 72
93 91 86 93 95 95 95 94 94 96 95 96 91 84 88 85 85 75 81 72 70 66 61 56 52 51 54 69 79 83 85 79 72
94 94 94 94 95 96 95 95 97 96 97 98 97 97 96 96 96 89 78 78 68 65 59 56 55 50 53 62 73 83 85 79 76

GFSFLT1_sfc_rhum_117.txt.gz
RH
77 79 82 82 83 82 83 82 81 84 82 75 74 77 75 80 75 80 79 78 68 72 70 69 69 69 69 69 68 69 68 67 67
78 83 84 85 85 83 82 80 80 81 82 75 77 78 80 74 77 75 81 77 68 68 69 69 69 69 69 69 68 68 68 67 67
81 85 85 87 84 83 81 82 81 80 80 79 80 82 80 68 74 76 86 79 69 69 70 70 69 69 69 69 68 68 68 66 67
82 86 86 86 87 85 83 86 83 80 80 82 83 82 80 83 76 72 87 81 69 70 71 71 70 69 70 70 69 68 68 67 66
88 88 89 87 86 86 86 86 85 84 84 86 88 85 81 83 73 70 87 79 68 70 71 71 70 70 70 70 70 69 68 67 68
88 89 91 89 89 88 88 87 85 88 89 88 90 89 89 85 72 74 84 76 69 71 72 71 70 70 71 71 69 68 69 68 68
78 85 90 90 90 90 90 88 87 90 96 98 93 98 90 86 76 72 84 76 69 71 73 73 72 71 72 71 70 68 68 68 68
82 85 86 91 93 97 94 93 88 95 95 97 99 97 93 87 78 70 86 79 68 70 73 74 74 73 73 73 71 70 69 68 68
77 80 92 94 93 97 98 97 93 95 91 87 95 96 90 78 74 82 88 82 72 68 72 75 75 75 75 74 73 73 72 71 71
72 80 88 97 96 97 98 98 95 93 86 78 75 83 82 77 72 83 90 86 80 74 71 74 75 75 75 75 75 75 75 74 74
96 91 93 94 97 97 97 97 96 95 94 81 69 63 66 66 62 74 84 88 86 81 78 72 74 75 74 75 76 77 78 78 77
94 96 96 95 96 96 99 99 97 98 98 94 71 70 56 55 56 64 79 80 89 86 80 77 77 78 75 74 74 80 83 82 82
97 97 95 95 96 97 98 98 99 98 98 95 90 84 78 60 54 51 59 69 69 84 84 80 79 78 75 73 74 79 83 86 87
94 96 96 94 96 96 96 97 98 99 99 99 99 98 97 82 62 54 48 57 70 71 82 87 85 83 81 72 71 75 81 84 86
98 97 97 97 97 97 96 95 97 95 96 94 96 98 95 91 74 56 53 57 54 63 66 73 76 87 83 80 74 74 78 81 85
96 96 98 97 96 95 95 95 93 96 94 97 98 99 96 93 83 75 67 60 54 58 58 60 63 63 84 82 79 77 76 80 83
91 93 94 94 92 95 86 92 97 96 97 95 97 97 92 97 83 78 76 73 69 66 57 58 61 65 64 74 83 80 76 75 79
84 88 89 92 97 94 95 94 94 97 97 96 92 100 98 93 91 87 82 78 76 71 66 65 62 59 57 70 75 84 82 77 75
92 87 91 94 96 98 98 98 98 98 99 99 97 94 89 92 90 85 89 80 77 74 73 68 61 65 68 73 73 78 85 80 74
87 92 95 97 99 99 99 98 98 98 98 98 97 99 99 97 98 94 90 79 81 78 76 72 67 59 56 59 72 83 80 77 76